EA1FJG Weather Reports


time (UTC)temp
C
wind
direction
speed
KPH
gust
KPH
rain 1hr
cm
rain 24hr
cm
rain mn
cm
humidity
%
barometer
mb
20260507114403 16 356 6.4 12.9 0.00 0.00 0.00 80 1011.2
20260507114303 16 356 6.4 12.9 0.00 0.00 0.00 80 1011.2
20260507114203 16 351 6.4 12.9 0.00 0.00 0.00 81 1011.2
20260507114103 16 342 6.4 12.9 0.00 0.00 0.00 80 1011.3
20260507114003 16 342 6.4 12.9 0.00 0.00 0.00 80 1011.3
20260507113903 16 334 4.8 12.9 0.00 0.00 0.00 79 1011.4
20260507113803 16 323 4.8 12.9 0.00 0.00 0.00 80 1011.3
20260507113703 16 316 6.4 12.9 0.00 0.00 0.00 78 1011.3
20260507113603 17 304 6.4 14.5 0.00 0.00 0.00 77 1011.4
20260507113503 17 298 6.4 14.5 0.00 0.00 0.00 77 1011.3
20260507113403 17 295 4.8 14.5 0.00 0.00 0.00 77 1011.5
20260507113303 17 297 4.8 14.5 0.00 0.00 0.00 77 1011.3
20260507113203 17 296 6.4 14.5 0.00 0.00 0.00 78 1011.4
20260507113103 17 298 6.4 14.5 0.00 0.00 0.00 78 1011.3
20260507113003 17 299 4.8 14.5 0.00 0.00 0.00 79 1011.2
20260507112924 17 300 4.8 14.5 0.00 0.00 0.00 79 1011.3
20260507112803 17 302 6.4 14.5 0.00 0.00 0.00 78 1011.3
20260507112703 17 307 4.8 14.5 0.00 0.00 0.00 78 1011.1
20260507112603 17 324 4.8 11.3 0.00 0.00 0.00 80 1011.1
20260507112503 17 326 4.8 11.3 0.00 0.00 0.00 78 1011.2
20260507112403 17 318 4.8 11.3 0.00 0.00 0.00 78 1011.2
20260507112306 17 318 4.8 11.3 0.00 0.00 0.00 78 1011.2
20260507112203 17 317 4.8 11.3 0.00 0.00 0.00 79 1011.2
20260507112124 17 318 4.8 11.3 0.00 0.00 0.00 81 1011.2
20260507112003 17 324 4.8 11.3 0.00 0.00 0.00 80 1011.0
20260507111924 17 325 4.8 11.3 0.00 0.00 0.00 80 1011.1
20260507111803 17 327 4.8 11.3 0.00 0.00 0.00 79 1011.3
20260507111703 17 336 4.8 12.9 0.00 0.00 0.00 80 1011.3
20260507111603 17 334 4.8 12.9 0.00 0.00 0.00 79 1011.4
20260507111503 17 328 6.4 12.9 0.00 0.00 0.00 79 1011.1
20260507111403 17 328 6.4 12.9 0.00 0.00 0.00 79 1011.2
20260507111303 17 330 4.8 12.9 0.00 0.00 0.00 79 1011.2
20260507111224 16 328 4.8 12.9 0.00 0.00 0.00 79 1011.0
20260507111124 16 328 4.8 12.9 0.00 0.00 0.00 79 1011.0
20260507111003 16 333 4.8 12.9 0.00 0.00 0.00 78 1011.1
20260507110903 17 337 4.8 12.9 0.00 0.00 0.00 78 1011.2
20260507110803 17 337 4.8 12.9 0.00 0.00 0.00 78 1011.2
20260507110703 17 339 4.8 12.9 0.00 0.00 0.00 78 1011.0
20260507110603 17 335 4.8 11.3 0.00 0.00 0.00 78 1010.9
20260507110503 17 337 4.8 11.3 0.00 0.00 0.00 78 1011.1
20260507110403 17 347 4.8 9.7 0.00 0.00 0.00 78 1010.9
20260507110303 17 348 4.8 12.9 0.00 0.00 0.00 79 1011.1
20260507110203 17 344 4.8 12.9 0.00 0.00 0.00 79 1011.2
20260507110104 17 340 6.4 12.9 0.00 0.00 0.00 78 1011.2
20260507110003 17 339 4.8 12.9 0.00 0.00 0.00 77 1010.9
20260507105903 17 334 4.8 12.9 0.00 0.00 0.00 77 1011.0
20260507105803 17 331 4.8 12.9 0.00 0.00 0.00 77 1011.2
20260507105703 17 328 4.8 12.9 0.00 0.00 0.00 77 1011.2
20260507105603 17 324 6.4 12.9 0.00 0.00 0.00 77 1011.2
20260507105503 17 322 6.4 12.9 0.00 0.00 0.00 77 1011.4
20260507105424 17 322 6.4 12.9 0.00 0.00 0.00 77 1011.4
20260507105306 17 310 4.8 11.3 0.00 0.00 0.00 77 1011.1
20260507105203 17 313 4.8 11.3 0.00 0.00 0.00 78 1011.0
20260507105124 17 313 4.8 11.3 0.00 0.00 0.00 78 1011.0
20260507105024 17 313 4.8 11.3 0.00 0.00 0.00 78 1011.3
20260507104903 17 310 4.8 11.3 0.00 0.00 0.00 77 1011.3
20260507104803 17 310 4.8 11.3 0.00 0.00 0.00 77 1011.3
20260507104703 17 316 4.8 11.3 0.00 0.00 0.00 77 1011.3
20260507104603 17 323 4.8 11.3 0.00 0.00 0.00 76 1011.3
20260507104503 17 337 4.8 9.7 0.00 0.00 0.00 77 1011.3
20260507104403 17 345 4.8 9.7 0.00 0.00 0.00 77 1011.2
20260507104303 17 356 6.4 9.7 0.00 0.00 0.00 77 1011.2
20260507104204 17 3 6.4 9.7 0.00 0.00 0.00 77 1011.3
20260507104103 17 8 6.4 9.7 0.00 0.00 0.00 77 1011.4
20260507104003 16 18 6.4 9.7 0.00 0.00 0.00 78 1011.2
20260507103903 16 25 6.4 9.7 0.00 0.00 0.00 77 1011.4
20260507103824 17 33 6.4 9.7 0.00 0.00 0.00 77 1011.3
20260507103724 17 34 4.8 9.7 0.00 0.00 0.00 78 1011.2
20260507103603 16 35 4.8 9.7 0.00 0.00 0.00 79 1011.2
20260507103503 16 36 4.8 9.7 0.00 0.00 0.00 78 1011.3
20260507103403 16 36 4.8 9.7 0.00 0.00 0.00 77 1011.3
20260507103303 16 37 4.8 9.7 0.00 0.00 0.00 77 1011.3
20260507103203 16 37 3.2 9.7 0.00 0.00 0.00 78 1011.3
20260507103103 16 37 3.2 9.7 0.00 0.00 0.00 78 1011.3
20260507103003 17 37 3.2 9.7 0.00 0.00 0.00 77 1011.2
20260507102903 17 37 3.2 9.7 0.00 0.00 0.00 77 1011.2
20260507102803 17 37 3.2 6.4 0.00 0.00 0.00 78 1011.2
20260507102724 17 37 3.2 6.4 0.00 0.00 0.00 77 1011.2
20260507102603 17 37 3.2 6.4 0.00 0.00 0.00 77 1011.2
20260507102503 17 37 3.2 6.4 0.00 0.00 0.00 77 1011.3
20260507102403 17 37 3.2 6.4 0.00 0.00 0.00 76 1011.2
20260507102306 17 37 3.2 6.4 0.00 0.00 0.00 75 1011.1
20260507102203 17 37 3.2 6.4 0.00 0.00 0.00 76 1011.2
20260507102103 17 37 3.2 6.4 0.00 0.00 0.00 76 1011.1
20260507102003 17 37 3.2 6.4 0.00 0.00 0.00 75 1011.2
20260507101924 17 37 1.6 4.8 0.00 0.00 0.00 75 1011.1
20260507101803 17 37 1.6 4.8 0.00 0.00 0.00 74 1011.2
20260507101724 17 37 1.6 4.8 0.00 0.00 0.00 74 1011.2
20260507101603 17 37 1.6 3.2 0.00 0.00 0.00 71 1011.3
20260507101503 17 37 1.6 3.2 0.00 0.00 0.00 70 1011.2
20260507101403 17 37 1.6 4.8 0.00 0.00 0.00 69 1011.1
20260507101303 17 37 1.6 4.8 0.00 0.00 0.00 69 1011.2
20260507101203 17 37 1.6 4.8 0.00 0.00 0.00 70 1011.2
20260507101103 17 37 1.6 4.8 0.00 0.00 0.00 70 1011.2
20260507101003 17 37 1.6 4.8 0.00 0.00 0.00 70 1011.1
20260507100903 16 37 1.6 4.8 0.00 0.00 0.00 72 1011.1
20260507100824 16 37 1.6 4.8 0.00 0.00 0.00 71 1011.2
20260507100703 16 37 1.6 4.8 0.00 0.00 0.00 71 1011.3
20260507100603 16 37 1.6 4.8 0.00 0.00 0.00 72 1011.2
20260507100503 17 37 1.6 4.8 0.00 0.00 0.00 72 1011.3
20260507100403 17 37 1.6 4.8 0.00 0.00 0.00 72 1011.2
20260507100303 17 37 1.6 4.8 0.00 0.00 0.00 74 1011.3
20260507100224 17 37 1.6 4.8 0.00 0.00 0.00 74 1011.3
20260507100003 16 37 1.6 4.8 0.00 0.00 0.00 72 1011.3
20260507095903 16 37 1.6 4.8 0.00 0.00 0.00 72 1011.3
20260507095803 16 37 1.6 4.8 0.00 0.00 0.00 72 1011.3
20260507095703 16 37 1.6 4.8 0.00 0.00 0.00 72 1011.1
20260507095603 16 37 1.6 4.8 0.00 0.00 0.00 73 1011.2
20260507095504 16 37 1.6 4.8 0.00 0.00 0.00 75 1011.2
20260507095403 16 37 1.6 4.8 0.00 0.00 0.00 72 1010.9
20260507095305 17 37 1.6 4.8 0.00 0.00 0.00 74 1011.2
20260507095203 16 37 1.6 4.8 0.00 0.00 0.00 76 1011.1
20260507095103 16 37 1.6 4.8 0.00 0.00 0.00 76 1011.1
20260507095003 16 37 1.6 4.8 0.00 0.00 0.00 76 1011.2
20260507094903 16 37 1.6 4.8 0.00 0.00 0.00 74 1011.1
20260507094803 16 37 1.6 4.8 0.00 0.00 0.00 74 1011.2
20260507094703 16 37 1.6 4.8 0.00 0.00 0.00 76 1011.2
20260507094603 16 37 3.2 4.8 0.00 0.00 0.00 73 1011.1
20260507094503 16 37 1.6 4.8 0.00 0.00 0.00 74 1011.1
20260507094403 16 37 1.6 4.8 0.00 0.00 0.00 75 1011.2
20260507094303 16 37 1.6 4.8 0.00 0.00 0.00 75 1011.1
20260507094203 16 37 1.6 4.8 0.00 0.00 0.00 76 1011.2
20260507094104 16 37 1.6 4.8 0.00 0.00 0.00 76 1011.1
20260507094003 16 37 1.6 4.8 0.00 0.00 0.00 77 1011.3
20260507093903 16 37 1.6 4.8 0.00 0.00 0.00 77 1011.3
20260507093803 16 37 1.6 4.8 0.00 0.00 0.00 76 1011.2
20260507093703 16 37 1.6 3.2 0.00 0.00 0.00 76 1011.2
20260507093603 16 37 1.6 3.2 0.00 0.00 0.00 76 1011.2
20260507093503 16 37 1.6 3.2 0.00 0.00 0.00 78 1011.2
20260507093403 16 37 1.6 3.2 0.00 0.00 0.00 78 1011.3
20260507093324 16 37 1.6 3.2 0.00 0.00 0.00 78 1011.4
20260507093203 15 37 1.6 3.2 0.00 0.00 0.00 79 1011.4
20260507093103 15 37 1.6 3.2 0.00 0.00 0.00 77 1011.5
20260507093024 16 37 1.6 3.2 0.00 0.00 0.00 76 1011.3
20260507092924 16 37 1.6 3.2 0.00 0.00 0.00 77 1011.4
20260507092803 16 37 1.6 3.2 0.00 0.00 0.00 78 1011.3
20260507092703 15 37 1.6 3.2 0.00 0.00 0.00 79 1011.3
20260507092603 15 37 1.6 3.2 0.00 0.00 0.00 80 1011.3
20260507092503 15 37 1.6 3.2 0.00 0.00 0.00 80 1011.3
20260507092424 15 37 1.6 3.2 0.00 0.00 0.00 80 1011.3
20260507092324 15 37 1.6 3.2 0.00 0.00 0.00 80 1011.4
20260507092224 15 37 1.6 3.2 0.00 0.00 0.00 81 1011.4
20260507092103 16 37 1.6 3.2 0.00 0.00 0.00 85 1011.3
20260507092003 16 37 0.0 3.2 0.00 0.00 0.00 89 1011.4
20260507091903 16 37 0.0 3.2 0.00 0.00 0.00 89 1011.4
20260507091803 16 37 0.0 3.2 0.00 0.00 0.00 91 1011.5
20260507091703 16 37 0.0 3.2 0.00 0.00 0.00 93 1011.4
20260507091603 15 37 1.6 3.2 0.00 0.00 0.00 95 1011.4
20260507091503 15 37 1.6 3.2 0.00 0.00 0.00 96 1011.4
20260507091424 15 37 1.6 3.2 0.00 0.00 0.00 97 1011.5
20260507091324 15 37 1.6 3.2 0.00 0.00 0.00 97 1011.5
20260507091203 15 37 0.0 3.2 0.00 0.00 0.00 98 1011.4
20260507091103 15 37 1.6 3.2 0.00 0.00 0.00 98 1011.4
20260507091003 15 37 1.6 3.2 0.00 0.00 0.00 98 1011.6
20260507090903 14 37 0.0 3.2 0.00 0.00 0.00 99 1011.5
20260507090803 14 37 0.0 3.2 0.00 0.00 0.00 99 1011.5
20260507090724 14 37 0.0 3.2 0.00 0.00 0.00 99 1011.5
20260507090603 13 37 1.6 3.2 0.00 0.00 0.00 99 1011.5
20260507090503 13 37 1.6 3.2 0.00 0.00 0.00 99 1011.5
20260507090403 13 37 1.6 3.2 0.00 0.00 0.00 99 1011.5
20260507090303 13 37 1.6 3.2 0.00 0.00 0.00 99 1011.5
20260507090203 13 37 1.6 3.2 0.00 0.00 0.00 99 1011.4
20260507090003 13 37 1.6 3.2 0.00 0.00 0.00 99 1011.6
20260507085903 13 37 1.6 3.2 0.00 0.00 0.00 99 1011.4
20260507085803 13 37 1.6 3.2 0.00 0.00 0.00 99 1011.6
20260507085703 12 37 1.6 3.2 0.00 0.00 0.00 99 1011.6
20260507085603 12 37 1.6 3.2 0.00 0.00 0.00 99 1011.5
20260507085503 13 37 1.6 3.2 0.00 0.00 0.00 99 1011.6
20260507085403 13 37 1.6 3.2 0.00 0.00 0.00 99 1011.5
20260507085306 13 37 0.0 3.2 0.00 0.00 0.00 99 1011.6
20260507085203 13 38 0.0 3.2 0.00 0.00 0.00 99 1011.7
20260507085124 13 38 0.0 3.2 0.00 0.00 0.00 99 1011.5
20260507085003 13 39 0.0 3.2 0.00 0.00 0.00 99 1011.6
20260507084903 13 39 0.0 3.2 0.00 0.00 0.00 99 1011.8
20260507084824 13 39 0.0 3.2 0.00 0.00 0.00 99 1011.8
20260507084703 12 40 0.0 3.2 0.00 0.00 0.00 99 1011.8
20260507084603 12 50 0.0 3.2 0.00 0.00 0.00 99 1011.9
20260507084503 12 51 1.6 3.2 0.00 0.00 0.00 99 1011.6
20260507084403 12 51 1.6 3.2 0.00 0.00 0.00 99 1011.6
20260507084303 12 56 1.6 3.2 0.00 0.00 0.00 99 1011.8
20260507084203 12 55 1.6 3.2 0.00 0.00 0.00 99 1011.9
20260507084103 12 56 1.6 3.2 0.00 0.00 0.00 99 1011.7
20260507084003 12 54 1.6 3.2 0.00 0.00 0.00 99 1011.8
20260507083903 12 53 1.6 3.2 0.00 0.00 0.00 99 1011.9
20260507083803 11 53 1.6 3.2 0.00 0.00 0.00 99 1011.6
20260507083703 11 54 1.6 3.2 0.00 0.00 0.00 99 1011.8
20260507083624 11 54 1.6 3.2 0.00 0.00 0.00 99 1011.8
20260507083503 11 51 1.6 3.2 0.00 0.00 0.00 99 1011.7
20260507083403 12 49 0.0 3.2 0.00 0.00 0.00 99 1011.8
20260507083303 12 47 0.0 1.6 0.00 0.00 0.00 99 1011.7
20260507083203 12 49 0.0 3.2 0.00 0.00 0.00 99 1011.6
20260507083103 12 47 0.0 3.2 0.00 0.00 0.00 99 1011.8
20260507083003 12 48 0.0 3.2 0.00 0.00 0.00 99 1011.7
20260507082903 12 48 0.0 3.2 0.00 0.00 0.00 99 1011.7
20260507082824 12 48 0.0 3.2 0.00 0.00 0.00 99 1011.7
20260507082703 12 48 0.0 3.2 0.00 0.00 0.00 99 1011.7
20260507082603 12 48 0.0 3.2 0.00 0.00 0.00 99 1011.8
20260507082503 12 48 0.0 3.2 0.00 0.00 0.00 99 1011.7
20260507082403 12 48 0.0 3.2 0.00 0.00 0.00 99 1011.7
20260507082306 12 48 0.0 3.2 0.00 0.00 0.00 99 1011.7
20260507082203 12 47 0.0 3.2 0.00 0.00 0.00 99 1011.7
20260507082103 12 45 0.0 3.2 0.00 0.00 0.00 99 1011.8
20260507082024 12 45 0.0 3.2 0.00 0.00 0.00 99 1011.8
20260507081924 12 45 0.0 3.2 0.00 0.00 0.00 99 1011.9
20260507081803 12 46 0.0 3.2 0.00 0.00 0.00 99 1012.0
20260507081703 12 44 0.0 1.6 0.00 0.00 0.00 99 1012.0
20260507081624 12 44 0.0 1.6 0.00 0.00 0.00 99 1012.0
20260507081503 11 42 0.0 1.6 0.00 0.00 0.00 99 1011.9
20260507081403 11 40 0.0 1.6 0.00 0.00 0.00 99 1012.0
20260507081303 11 40 0.0 1.6 0.00 0.00 0.00 99 1012.0
20260507081203 11 48 0.0 3.2 0.00 0.00 0.00 99 1012.0
20260507081103 11 48 0.0 3.2 0.00 0.00 0.00 99 1012.0
20260507081024 11 49 0.0 3.2 0.00 0.00 0.00 99 1012.0
20260507080903 10 50 0.0 3.2 0.00 0.00 0.00 99 1011.9
20260507080803 10 50 0.0 3.2 0.00 0.00 0.00 99 1012.0
20260507080703 10 50 0.0 3.2 0.00 0.00 0.00 99 1012.0
20260507080603 10 50 0.0 3.2 0.00 0.00 0.00 99 1012.0
20260507080524 10 50 0.0 3.2 0.00 0.00 0.00 99 1011.9
20260507080403 10 47 0.0 3.2 0.00 0.00 0.00 99 1012.0
20260507080303 10 48 0.0 3.2 0.00 0.00 0.00 99 1012.0
20260507080203 11 48 0.0 3.2 0.00 0.00 0.00 99 1012.1
20260507080103 11 38 0.0 1.6 0.00 0.00 0.00 99 1012.1
20260507080003 11 40 0.0 1.6 0.00 0.00 0.00 99 1012.1
20260507075924 11 40 0.0 1.6 0.00 0.00 0.00 99 1012.1
20260507075803 10 46 1.6 3.2 0.00 0.00 0.00 99 1012.1
20260507075703 10 49 1.6 3.2 0.00 0.00 0.00 99 1012.0
20260507075603 10 51 1.6 3.2 0.00 0.00 0.00 99 1011.9
20260507075503 10 53 1.6 3.2 0.00 0.00 0.00 99 1012.1
20260507075403 10 55 1.6 3.2 0.00 0.00 0.00 99 1012.2
20260507075324 10 55 1.6 3.2 0.00 0.00 0.00 99 1012.2
20260507075203 10 58 1.6 3.2 0.00 0.00 0.00 99 1011.8
20260507075103 10 56 1.6 3.2 0.00 0.00 0.00 99 1012.1
20260507075024 10 60 1.6 3.2 0.00 0.00 0.00 99 1012.0
20260507074903 10 62 1.6 3.2 0.00 0.00 0.00 99 1012.1
20260507074803 10 61 1.6 3.2 0.00 0.00 0.00 99 1012.2
20260507074703 10 62 1.6 3.2 0.00 0.00 0.00 99 1012.1
20260507074624 9 62 1.6 3.2 0.00 0.00 0.00 99 1012.1
20260507074503 9 60 1.6 3.2 0.00 0.00 0.00 99 1012.1
20260507074424 9 59 1.6 3.2 0.00 0.00 0.00 99 1012.1
20260507074303 9 59 1.6 3.2 0.00 0.00 0.00 99 1012.2
20260507074203 9 61 1.6 4.8 0.00 0.00 0.00 99 1012.2
20260507074124 9 62 1.6 4.8 0.00 0.00 0.00 99 1012.1
20260507074003 9 59 1.6 4.8 0.00 0.00 0.00 99 1012.2
20260507073903 9 57 1.6 4.8 0.00 0.00 0.00 99 1012.0
20260507073803 9 57 1.6 4.8 0.00 0.00 0.00 99 1012.1
20260507073724 9 57 1.6 4.8 0.00 0.00 0.00 99 1012.1
20260507073603 10 55 1.6 4.8 0.00 0.00 0.00 99 1012.0
20260507073524 10 55 1.6 4.8 0.00 0.00 0.00 99 1012.1
20260507073403 10 55 1.6 4.8 0.00 0.00 0.00 99 1012.2
20260507073303 10 55 1.6 4.8 0.00 0.00 0.00 99 1012.0
20260507073203 10 55 1.6 4.8 0.00 0.00 0.00 99 1012.0
20260507073103 10 54 1.6 4.8 0.00 0.00 0.00 99 1012.1
20260507073003 9 57 1.6 4.8 0.00 0.00 0.00 99 1012.2
20260507072903 9 56 3.2 4.8 0.00 0.00 0.00 99 1012.0
20260507072803 9 55 1.6 4.8 0.00 0.00 0.00 99 1012.0
20260507072703 9 55 1.6 4.8 0.00 0.00 0.00 99 1012.3
20260507072603 9 56 1.6 4.8 0.00 0.00 0.00 99 1012.1
20260507072503 9 56 1.6 4.8 0.00 0.00 0.00 99 1012.2
20260507072403 9 57 1.6 4.8 0.00 0.00 0.00 99 1012.2
20260507072306 9 62 3.2 4.8 0.00 0.00 0.00 99 1012.1
20260507072203 9 62 3.2 4.8 0.00 0.00 0.00 99 1012.0
20260507072103 9 61 3.2 4.8 0.00 0.00 0.00 99 1012.1
20260507072003 9 58 3.2 4.8 0.00 0.00 0.00 99 1012.2
20260507071903 9 58 3.2 4.8 0.00 0.00 0.00 99 1012.2
20260507071824 8 59 1.6 4.8 0.00 0.00 0.00 99 1012.2
20260507071703 8 60 1.6 4.8 0.00 0.00 0.00 99 1012.1
20260507071604 8 60 1.6 4.8 0.00 0.00 0.00 99 1012.1
20260507071503 8 60 1.6 4.8 0.00 0.00 0.00 99 1012.2
20260507071424 8 60 1.6 4.8 0.00 0.00 0.00 99 1012.3
20260507071303 8 61 1.6 4.8 0.00 0.00 0.00 99 1012.2
20260507071203 8 53 1.6 3.2 0.00 0.00 0.00 99 1012.4
20260507071103 8 52 1.6 3.2 0.00 0.00 0.00 99 1012.2
20260507071003 8 56 1.6 3.2 0.00 0.00 0.00 99 1012.1
20260507070903 8 57 1.6 3.2 0.00 0.00 0.00 99 1012.2
20260507070803 8 59 1.6 3.2 0.00 0.00 0.00 99 1012.3
20260507070703 8 60 1.6 3.2 0.00 0.00 0.00 99 1012.2
20260507070603 8 63 1.6 4.8 0.00 0.00 0.00 99 1012.2
20260507070503 8 63 1.6 4.8 0.00 0.00 0.00 99 1012.3
20260507070424 8 63 1.6 4.8 0.00 0.00 0.00 99 1012.3
20260507070303 8 68 3.2 4.8 0.00 0.00 0.00 99 1012.3
20260507070203 8 69 3.2 4.8 0.00 0.00 0.00 99 1012.3
20260507070103 8 70 3.2 4.8 0.00 0.00 0.00 99 1012.2
20260507070004 8 70 3.2 4.8 0.00 0.00 0.00 99 1012.2
20260507065903 8 67 3.2 4.8 0.00 0.00 0.00 99 1012.3
20260507065824 8 67 1.6 4.8 0.00 0.00 0.00 99 1012.1
20260507065724 8 67 1.6 4.8 0.00 0.00 0.00 99 1012.4
20260507065603 8 67 1.6 4.8 0.00 0.00 0.00 99 1012.4
20260507065503 8 65 1.6 4.8 0.00 0.00 0.00 99 1012.3
20260507065424 8 63 1.6 4.8 0.00 0.00 0.00 99 1012.3
20260507065305 8 61 1.6 4.8 0.00 0.00 0.00 99 1012.2
20260507065224 8 53 1.6 3.2 0.00 0.00 0.00 99 1012.2
20260507065124 8 52 1.6 3.2 0.00 0.00 0.00 99 1012.2
20260507065024 8 53 1.6 3.2 0.00 0.00 0.00 99 1012.2
20260507064924 8 53 1.6 3.2 0.00 0.00 0.00 99 1012.2
20260507064803 8 56 1.6 3.2 0.00 0.00 0.00 99 1012.0
20260507064703 8 56 1.6 3.2 0.00 0.00 0.00 99 1012.0
20260507064603 8 56 1.6 3.2 0.00 0.00 0.00 99 1012.0
20260507064503 8 56 1.6 3.2 0.00 0.00 0.00 99 1012.2
20260507064403 8 57 3.2 3.2 0.00 0.00 0.00 99 1012.2
20260507064303 8 57 3.2 3.2 0.00 0.00 0.00 99 1012.2
20260507064224 8 57 3.2 3.2 0.00 0.00 0.00 99 1012.4
20260507064103 8 58 1.6 3.2 0.00 0.00 0.00 99 1012.1
20260507064003 8 58 1.6 3.2 0.00 0.00 0.00 99 1012.2
20260507063903 8 58 1.6 3.2 0.00 0.00 0.00 99 1012.1
20260507063803 8 57 1.6 3.2 0.00 0.00 0.00 99 1012.2
20260507063703 8 54 1.6 3.2 0.00 0.00 0.00 99 1012.4
20260507063603 8 53 1.6 3.2 0.00 0.00 0.00 99 1012.2
20260507063503 8 53 1.6 3.2 0.00 0.00 0.00 99 1012.3
20260507063403 8 52 1.6 3.2 0.00 0.00 0.00 99 1012.2
20260507063303 8 54 1.6 3.2 0.00 0.00 0.00 99 1012.2
20260507063203 8 56 1.6 4.8 0.00 0.00 0.00 99 1012.3
20260507063103 8 56 1.6 4.8 0.00 0.00 0.00 99 1012.4
20260507063003 8 55 1.6 4.8 0.00 0.00 0.00 99 1012.2
20260507062903 8 56 1.6 4.8 0.00 0.00 0.00 99 1012.4
20260507062803 8 56 1.6 4.8 0.00 0.00 0.00 99 1012.3
20260507062703 8 56 1.6 4.8 0.00 0.00 0.00 99 1012.3
20260507062604 8 56 1.6 4.8 0.00 0.00 0.00 99 1012.3
20260507062503 8 55 1.6 4.8 0.00 0.00 0.00 99 1012.2
20260507062403 8 55 1.6 4.8 0.00 0.00 0.00 99 1012.4
20260507062306 8 54 1.6 4.8 0.00 0.00 0.00 99 1012.4
20260507062203 8 51 1.6 4.8 0.00 0.00 0.00 99 1012.6
20260507062124 8 48 1.6 3.2 0.00 0.00 0.00 99 1012.4
20260507062003 8 48 1.6 3.2 0.00 0.00 0.00 99 1012.5
20260507061903 8 49 1.6 3.2 0.00 0.00 0.00 99 1012.3
20260507061824 8 46 1.6 3.2 0.00 0.00 0.00 99 1012.3
20260507061703 8 46 0.0 1.6 0.00 0.00 0.00 99 1012.2
20260507061603 8 46 0.0 1.6 0.00 0.00 0.00 99 1012.1
20260507061525 8 46 0.0 1.6 0.00 0.00 0.00 99 1012.1
20260507061404 8 45 0.0 1.6 0.00 0.00 0.00 99 1012.4
20260507061303 8 46 0.0 1.6 0.00 0.00 0.00 99 1012.3
20260507061203 8 48 0.0 3.2 0.00 0.00 0.00 99 1012.2
20260507061124 8 48 0.0 3.2 0.00 0.00 0.00 99 1012.2
20260507061003 8 48 0.0 3.2 0.00 0.00 0.00 99 1012.3
20260507060924 8 49 0.0 3.2 0.00 0.00 0.00 99 1012.3
20260507060803 8 48 1.6 3.2 0.00 0.00 0.00 99 1012.2
20260507060703 8 49 1.6 3.2 0.00 0.00 0.00 99 1012.2
20260507060603 8 49 1.6 3.2 0.00 0.00 0.00 99 1012.2
20260507060503 8 49 1.6 3.2 0.00 0.00 0.00 99 1012.2
20260507060403 8 50 1.6 3.2 0.00 0.00 0.00 99 1012.5
20260507060303 8 50 1.6 3.2 0.00 0.00 0.00 99 1012.4
20260507060203 8 50 1.6 3.2 0.00 0.00 0.00 99 1012.4
20260507060003 7 48 1.6 3.2 0.00 0.00 0.00 99 1012.4
20260507055903 7 48 1.6 3.2 0.00 0.00 0.00 99 1012.5
20260507055803 7 48 1.6 3.2 0.00 0.00 0.00 99 1012.5
20260507055703 7 48 1.6 3.2 0.00 0.00 0.00 99 1012.4
20260507055603 7 48 1.6 3.2 0.00 0.00 0.00 99 1012.3
20260507055503 7 48 1.6 3.2 0.00 0.00 0.00 99 1012.3
20260507055403 7 48 1.6 3.2 0.00 0.00 0.00 99 1012.3
20260507055324 7 49 1.6 3.2 0.00 0.00 0.00 99 1012.2
20260507055203 7 49 1.6 3.2 0.00 0.00 0.00 99 1012.4
20260507055124 7 49 1.6 3.2 0.00 0.00 0.00 99 1012.5
20260507055003 7 51 1.6 3.2 0.00 0.00 0.00 99 1012.3
20260507054903 7 53 1.6 3.2 0.00 0.00 0.00 99 1012.4
20260507054803 7 53 1.6 3.2 0.00 0.00 0.00 99 1012.4
20260507054703 7 54 1.6 3.2 0.00 0.00 0.00 99 1012.2
20260507054603 7 54 1.6 3.2 0.00 0.00 0.00 99 1012.5
20260507054503 7 54 1.6 3.2 0.00 0.00 0.00 99 1012.5
20260507054424 7 54 1.6 3.2 0.00 0.00 0.00 99 1012.5
20260507054303 7 54 1.6 3.2 0.00 0.00 0.00 99 1012.3
20260507054203 7 54 0.0 3.2 0.00 0.00 0.00 99 1012.2
20260507054103 7 54 0.0 3.2 0.00 0.00 0.00 99 1012.2
20260507054003 7 54 0.0 3.2 0.00 0.00 0.00 99 1012.4
20260507053903 7 52 0.0 3.2 0.00 0.00 0.00 99 1012.3
20260507053803 7 49 0.0 1.6 0.00 0.00 0.00 99 1012.4
20260507053704 7 46 0.0 1.6 0.00 0.00 0.00 99 1012.3
20260507053603 7 42 0.0 1.6 0.00 0.00 0.00 99 1012.2
20260507053503 7 0 0.0 0.0 0.00 0.00 0.00 99 1012.2
20260507053424 7 0 0.0 0.0 0.00 0.00 0.00 99 1012.4
20260507053303 7 0 0.0 0.0 0.00 0.00 0.00 99 1012.4
20260507053204 7 0 0.0 0.0 0.00 0.00 0.00 99 1012.3
20260507053103 7 0 0.0 0.0 0.00 0.00 0.00 99 1012.4
20260507053003 7 0 0.0 0.0 0.00 0.00 0.00 99 1012.3
20260507052903 7 0 0.0 0.0 0.00 0.00 0.00 99 1012.2
20260507052803 7 0 0.0 0.0 0.00 0.00 0.00 99 1012.3
20260507052703 7 0 0.0 0.0 0.00 0.00 0.00 99 1012.2
20260507052603 7 0 0.0 0.0 0.00 0.00 0.00 99 1012.2
20260507052503 7 0 0.0 0.0 0.00 0.00 0.00 99 1012.2
20260507052403 7 0 0.0 0.0 0.00 0.00 0.00 99 1012.2
20260507052306 7 0 0.0 0.0 0.00 0.00 0.00 99 1012.2
20260507052224 7 0 0.0 0.0 0.00 0.00 0.00 99 1012.2
20260507052103 7 0 0.0 0.0 0.00 0.00 0.00 99 1012.4
20260507052003 7 0 0.0 0.0 0.00 0.00 0.00 99 1012.4
20260507051904 7 0 0.0 0.0 0.00 0.00 0.00 99 1012.2
20260507051824 7 0 0.0 0.0 0.00 0.00 0.00 99 1012.3
20260507051724 7 0 0.0 0.0 0.00 0.00 0.00 99 1012.2
20260507051624 7 0 0.0 0.0 0.00 0.00 0.00 99 1012.3
20260507051503 7 0 0.0 0.0 0.00 0.00 0.00 99 1012.5
20260507051403 7 0 0.0 0.0 0.00 0.00 0.00 99 1012.2
20260507051324 7 0 0.0 0.0 0.00 0.00 0.00 99 1012.3
20260507051224 7 0 0.0 0.0 0.00 0.00 0.00 99 1012.3
20260507051103 7 42 0.0 1.6 0.00 0.00 0.00 99 1012.3
20260507051024 7 42 0.0 1.6 0.00 0.00 0.00 99 1012.3
20260507050903 7 42 0.0 1.6 0.00 0.00 0.00 99 1012.4
20260507050825 7 42 0.0 1.6 0.00 0.00 0.00 99 1012.4
20260507050703 7 42 0.0 1.6 0.00 0.00 0.00 99 1012.4
20260507050603 7 42 0.0 1.6 0.00 0.00 0.00 99 1012.4
20260507050503 7 42 0.0 1.6 0.00 0.00 0.00 99 1012.3
20260507050424 7 42 0.0 1.6 0.00 0.00 0.00 99 1012.3
20260507050303 7 42 0.0 1.6 0.00 0.00 0.00 99 1012.5
20260507050203 7 42 0.0 1.6 0.00 0.00 0.00 99 1012.4
20260507050103 7 42 0.0 1.6 0.00 0.00 0.00 99 1012.5
20260507050003 7 42 0.0 1.6 0.00 0.00 0.00 99 1012.4
20260507045903 7 42 0.0 1.6 0.00 0.00 0.00 99 1012.3
20260507045803 7 42 0.0 1.6 0.00 0.00 0.00 99 1012.4
20260507045703 7 42 0.0 1.6 0.00 0.00 0.00 99 1012.5
20260507045603 7 42 0.0 1.6 0.00 0.00 0.00 99 1012.3
20260507045524 7 42 0.0 1.6 0.00 0.00 0.00 99 1012.3
20260507045424 7 42 0.0 1.6 0.00 0.00 0.00 99 1012.3
20260507045324 7 42 0.0 1.6 0.00 0.00 0.00 99 1012.4
20260507045203 7 42 0.0 1.6 0.00 0.00 0.00 99 1012.4
20260507045103 7 43 0.0 1.6 0.00 0.00 0.00 99 1012.4
20260507045003 7 43 0.0 1.6 0.00 0.00 0.00 99 1012.5
20260507044903 7 43 0.0 1.6 0.00 0.00 0.00 99 1012.7
20260507044803 7 43 0.0 1.6 0.00 0.00 0.00 99 1012.7
20260507044703 7 42 0.0 1.6 0.00 0.00 0.00 99 1012.6
20260507044603 7 42 0.0 1.6 0.00 0.00 0.00 99 1012.5
20260507044503 7 42 0.0 1.6 0.00 0.00 0.00 99 1012.4
20260507044424 7 0 0.0 0.0 0.00 0.00 0.00 99 1012.4
20260507044303 7 0 0.0 0.0 0.00 0.00 0.00 99 1012.4
20260507044203 7 0 0.0 0.0 0.00 0.00 0.00 99 1012.6
20260507044103 7 0 0.0 0.0 0.00 0.00 0.00 99 1012.6
20260507044003 7 0 0.0 0.0 0.00 0.00 0.00 99 1012.4
20260507043903 7 0 0.0 0.0 0.00 0.00 0.00 99 1012.5
20260507043803 7 0 0.0 0.0 0.00 0.00 0.00 99 1012.5
20260507043703 7 0 0.0 0.0 0.00 0.00 0.00 99 1012.5
20260507043624 7 0 0.0 0.0 0.00 0.00 0.00 99 1012.6
20260507043524 7 0 0.0 0.0 0.00 0.00 0.00 99 1012.6
20260507043403 7 0 0.0 0.0 0.00 0.00 0.00 99 1012.6
20260507043324 7 0 0.0 0.0 0.00 0.00 0.00 99 1012.6
20260507043203 7 0 0.0 0.0 0.00 0.00 0.00 99 1012.6
20260507043103 7 0 0.0 0.0 0.00 0.00 0.00 99 1012.6
20260507043003 7 0 0.0 0.0 0.00 0.00 0.00 99 1012.7
20260507042903 7 0 0.0 0.0 0.00 0.00 0.00 99 1012.5
20260507042803 7 0 0.0 0.0 0.00 0.00 0.00 99 1012.5
20260507042703 7 0 0.0 0.0 0.00 0.00 0.00 99 1012.8
20260507042603 7 0 0.0 0.0 0.00 0.00 0.00 99 1012.8
20260507042503 7 0 0.0 0.0 0.00 0.00 0.00 99 1012.5
20260507042403 7 0 0.0 0.0 0.00 0.00 0.00 99 1012.4
20260507042306 7 0 0.0 0.0 0.00 0.00 0.00 99 1012.6
20260507042203 7 0 0.0 0.0 0.00 0.00 0.00 99 1012.7
20260507042103 7 0 0.0 0.0 0.00 0.00 0.00 99 1012.6
20260507042003 7 0 0.0 0.0 0.00 0.00 0.00 99 1012.7
20260507041903 7 0 0.0 0.0 0.00 0.00 0.00 99 1012.6
20260507041824 7 0 0.0 0.0 0.00 0.00 0.00 99 1012.6
20260507041703 7 0 0.0 0.0 0.00 0.00 0.00 99 1012.8
20260507041603 7 0 0.0 0.0 0.00 0.00 0.00 99 1012.8
20260507041503 7 0 0.0 0.0 0.00 0.00 0.00 99 1012.6
20260507041424 7 0 0.0 0.0 0.00 0.00 0.00 99 1012.8
20260507041303 7 0 0.0 0.0 0.00 0.00 0.00 99 1013.0
20260507041203 7 0 0.0 0.0 0.00 0.00 0.00 99 1012.9
20260507041124 7 0 0.0 0.0 0.00 0.00 0.00 99 1012.7
20260507041024 7 43 0.0 1.6 0.00 0.00 0.00 99 1012.8
20260507040903 7 51 0.0 3.2 0.00 0.00 0.00 99 1012.8
20260507040803 7 49 0.0 3.2 0.00 0.00 0.00 99 1012.9
20260507040703 7 56 0.0 3.2 0.00 0.00 0.00 99 1012.9
20260507040603 7 53 0.0 3.2 0.00 0.00 0.00 99 1012.9
20260507040503 7 53 0.0 3.2 0.00 0.00 0.00 99 1012.7
20260507040403 7 52 1.6 3.2 0.00 0.00 0.00 99 1012.7
20260507040303 7 52 1.6 3.2 0.00 0.00 0.00 99 1012.7
20260507040224 7 52 1.6 3.2 0.00 0.00 0.00 99 1012.7
20260507040103 7 51 1.6 3.2 0.00 0.00 0.00 99 1012.9
20260507040003 7 52 1.6 3.2 0.00 0.00 0.00 99 1012.9
20260507035924 7 52 1.6 3.2 0.00 0.00 0.00 99 1012.9
20260507035803 7 50 1.6 3.2 0.00 0.00 0.00 99 1012.7
20260507035724 7 51 1.6 3.2 0.00 0.00 0.00 99 1012.8
20260507035603 7 45 1.6 3.2 0.00 0.00 0.00 99 1012.8
20260507035524 7 46 1.6 1.6 0.00 0.00 0.00 99 1013.0
20260507035403 7 46 1.6 1.6 0.00 0.00 0.00 99 1012.8
20260507035306 7 45 0.0 1.6 0.00 0.00 0.00 99 1012.7
20260507035203 7 44 0.0 1.6 0.00 0.00 0.00 99 1012.9
20260507035124 7 44 0.0 1.6 0.00 0.00 0.00 99 1012.8
20260507035003 7 44 0.0 1.6 0.00 0.00 0.00 99 1012.6
20260507034903 7 44 0.0 1.6 0.00 0.00 0.00 99 1012.8
20260507034803 7 45 0.0 1.6 0.00 0.00 0.00 99 1012.7
20260507034703 7 45 0.0 1.6 0.00 0.00 0.00 99 1012.8
20260507034603 7 46 0.0 1.6 0.00 0.00 0.00 99 1012.8
20260507034503 7 46 0.0 1.6 0.00 0.00 0.00 99 1012.7
20260507034404 7 46 0.0 1.6 0.00 0.00 0.00 99 1012.8
20260507034303 7 46 0.0 1.6 0.00 0.00 0.00 99 1012.8
20260507034203 7 46 0.0 1.6 0.00 0.00 0.00 99 1013.1
20260507034124 7 45 0.0 1.6 0.00 0.00 0.00 99 1013.0
20260507034024 7 46 1.6 1.6 0.00 0.00 0.00 99 1012.8
20260507033903 7 46 1.6 1.6 0.00 0.00 0.00 99 1013.0
20260507033803 7 46 1.6 1.6 0.00 0.00 0.00 99 1012.9
20260507033703 7 46 1.6 3.2 0.00 0.00 0.00 99 1013.0
20260507033603 7 46 1.6 3.2 0.00 0.00 0.00 99 1012.7
20260507033503 7 46 1.6 3.2 0.00 0.00 0.00 99 1012.9
20260507033403 7 46 1.6 3.2 0.00 0.00 0.00 99 1013.0
20260507033303 7 46 1.6 3.2 0.00 0.00 0.00 99 1012.9
20260507033203 7 46 1.6 3.2 0.00 0.00 0.00 99 1013.0
20260507033103 7 46 1.6 3.2 0.00 0.00 0.00 99 1013.2
20260507033003 7 46 1.6 3.2 0.00 0.00 0.00 99 1013.1
20260507032903 7 46 1.6 3.2 0.00 0.00 0.00 99 1012.9
20260507032803 7 46 1.6 3.2 0.00 0.00 0.00 99 1012.9
20260507032703 7 46 1.6 3.2 0.00 0.00 0.00 99 1012.9
20260507032603 7 45 1.6 3.2 0.00 0.00 0.00 99 1013.0
20260507032524 7 45 1.6 3.2 0.00 0.00 0.00 99 1012.7
20260507032424 7 45 1.6 3.2 0.00 0.00 0.00 99 1012.9
20260507032305 7 46 1.6 3.2 0.00 0.00 0.00 99 1012.9
20260507032224 7 45 1.6 1.6 0.00 0.00 0.00 99 1012.8
20260507032103 7 45 1.6 1.6 0.00 0.00 0.00 99 1012.9
20260507032003 7 44 1.6 1.6 0.00 0.00 0.00 99 1012.8
20260507031903 7 44 1.6 1.6 0.00 0.00 0.00 99 1012.8
20260507031803 7 44 1.6 1.6 0.00 0.00 0.00 99 1012.7
20260507031703 7 44 1.6 1.6 0.00 0.00 0.00 99 1012.9
20260507031624 7 44 1.6 1.6 0.00 0.00 0.00 99 1012.8
20260507031524 7 45 1.6 1.6 0.00 0.00 0.00 99 1012.8
20260507031403 7 45 1.6 1.6 0.00 0.00 0.00 99 1012.8
20260507031303 7 45 1.6 1.6 0.00 0.00 0.00 99 1012.7
20260507031203 7 45 1.6 1.6 0.00 0.00 0.00 99 1013.0
20260507031103 7 45 1.6 1.6 0.00 0.00 0.00 99 1012.8
20260507031004 7 45 1.6 1.6 0.00 0.00 0.00 99 1012.8
20260507030924 7 45 1.6 1.6 0.00 0.00 0.00 99 1012.8
20260507030803 7 45 1.6 1.6 0.00 0.00 0.00 99 1012.8
20260507030703 7 45 1.6 1.6 0.00 0.00 0.00 99 1013.0
20260507030603 7 45 1.6 1.6 0.00 0.00 0.00 99 1013.0
20260507030503 7 45 1.6 1.6 0.00 0.00 0.00 99 1012.7
20260507030403 7 45 1.6 1.6 0.00 0.00 0.00 99 1012.9
20260507030324 7 45 1.6 1.6 0.00 0.00 0.00 99 1012.7
20260507030224 7 44 0.0 1.6 0.00 0.00 0.00 99 1012.6
20260507030125 7 44 0.0 1.6 0.00 0.00 0.00 99 1012.8
20260507030003 7 44 0.0 1.6 0.00 0.00 0.00 99 1012.8
20260507025924 7 45 0.0 1.6 0.00 0.00 0.00 99 1012.9
20260507025803 7 45 0.0 1.6 0.00 0.00 0.00 99 1012.8
20260507025703 7 46 0.0 1.6 0.00 0.00 0.00 99 1012.8
20260507025624 7 46 0.0 1.6 0.00 0.00 0.00 99 1012.8
20260507025503 7 0 0.0 0.0 0.00 0.00 0.00 99 1012.9
20260507025404 7 0 0.0 0.0 0.00 0.00 0.00 99 1012.7
20260507025306 7 0 0.0 0.0 0.00 0.00 0.00 99 1013.0
20260507025203 7 42 0.0 1.6 0.00 0.00 0.00 99 1012.9
20260507025103 7 42 0.0 1.6 0.00 0.00 0.00 99 1012.8
20260507025004 7 42 0.0 1.6 0.00 0.00 0.00 99 1013.0
20260507024924 7 42 0.0 1.6 0.00 0.00 0.00 99 1013.0
20260507024803 7 42 0.0 1.6 0.00 0.00 0.00 99 1012.8
20260507024703 7 42 0.0 1.6 0.00 0.00 0.00 99 1012.8
20260507024603 7 43 0.0 1.6 0.00 0.00 0.00 99 1012.8
20260507024503 7 42 0.0 1.6 0.00 0.00 0.00 99 1012.8
20260507024403 7 42 0.0 1.6 0.00 0.00 0.00 99 1012.9
20260507024303 7 42 0.0 1.6 0.00 0.00 0.00 99 1012.8
20260507024203 7 43 0.0 1.6 0.00 0.00 0.00 99 1012.9
20260507024103 7 44 0.0 3.2 0.00 0.00 0.00 99 1012.8
20260507024003 7 44 0.0 3.2 0.00 0.00 0.00 99 1012.9
20260507023903 7 45 1.6 3.2 0.00 0.00 0.00 99 1012.8
20260507023803 7 45 1.6 3.2 0.00 0.00 0.00 99 1013.0
20260507023724 7 45 1.6 3.2 0.00 0.00 0.00 99 1013.0
20260507023603 7 45 1.6 3.2 0.00 0.00 0.00 99 1013.0
20260507023503 7 45 1.6 3.2 0.00 0.00 0.00 99 1013.0
20260507023403 7 45 1.6 3.2 0.00 0.00 0.00 99 1012.9
20260507023303 7 45 1.6 3.2 0.00 0.00 0.00 99 1013.2
20260507023203 7 45 1.6 3.2 0.00 0.00 0.00 99 1013.2
20260507023103 7 45 0.0 3.2 0.00 0.00 0.00 99 1013.0
20260507023003 7 45 0.0 1.6 0.00 0.00 0.00 99 1013.0
20260507022904 7 45 0.0 1.6 0.00 0.00 0.00 99 1013.1
20260507022803 7 45 0.0 1.6 0.00 0.03 0.00 99 1013.1
20260507022724 7 45 0.0 1.6 0.00 0.03 0.00 99 1013.0
20260507022603 7 45 0.0 1.6 0.00 0.03 0.00 99 1013.0
20260507022503 7 45 0.0 1.6 0.00 0.03 0.00 99 1013.0
20260507022403 7 46 0.0 1.6 0.00 0.03 0.00 99 1013.0
20260507022306 7 46 0.0 1.6 0.00 0.03 0.00 99 1012.9
20260507022203 7 46 0.0 1.6 0.00 0.03 0.00 99 1012.9
20260507022104 7 48 0.0 1.6 0.00 0.03 0.00 99 1012.9
20260507022003 7 0 0.0 0.0 0.00 0.05 0.00 99 1013.1
20260507021903 7 0 0.0 0.0 0.00 0.05 0.00 99 1013.2
20260507021824 7 0 0.0 0.0 0.00 0.05 0.00 99 1013.2
20260507021724 7 0 0.0 0.0 0.00 0.05 0.00 99 1012.9
20260507021603 7 0 0.0 0.0 0.00 0.05 0.00 99 1012.9
20260507021503 7 0 0.0 0.0 0.00 0.05 0.00 99 1012.9
20260507021404 7 0 0.0 0.0 0.00 0.08 0.00 99 1013.1
20260507021303 7 0 0.0 0.0 0.00 0.08 0.00 99 1013.0
20260507021203 7 0 0.0 0.0 0.00 0.08 0.00 99 1013.0
20260507021103 7 0 0.0 0.0 0.00 0.08 0.00 99 1013.0
20260507021003 7 0 0.0 0.0 0.00 0.08 0.00 99 1013.1
20260507020903 7 0 0.0 0.0 0.00 0.08 0.00 99 1012.9
20260507020803 7 0 0.0 0.0 0.00 0.08 0.00 99 1013.1
20260507020703 7 0 0.0 0.0 0.00 0.08 0.00 98 1013.0
20260507020603 7 0 0.0 0.0 0.00 0.08 0.00 99 1013.0
20260507020503 7 0 0.0 0.0 0.00 0.08 0.00 99 1013.1
20260507020424 7 0 0.0 0.0 0.00 0.10 0.00 99 1013.1
20260507020303 7 0 0.0 0.0 0.00 0.10 0.00 99 1013.0
20260507020203 7 0 0.0 0.0 0.00 0.10 0.00 98 1013.1
20260507020024 7 50 0.0 3.2 0.00 0.10 0.00 98 1013.0
20260507015903 7 50 0.0 3.2 0.00 0.10 0.00 98 1013.1
20260507015825 7 50 0.0 3.2 0.00 0.10 0.00 98 1013.1
20260507015703 8 48 0.0 3.2 0.00 0.10 0.00 98 1013.1
20260507015603 8 47 0.0 3.2 0.00 0.13 0.00 98 1013.1
20260507015504 8 47 0.0 3.2 0.00 0.13 0.00 98 1013.1
20260507015403 8 47 0.0 3.2 0.00 0.15 0.00 98 1013.2
20260507015324 8 47 1.6 3.2 0.00 0.15 0.00 98 1013.3
20260507015203 8 47 1.6 3.2 0.00 0.15 0.00 98 1013.3
20260507015103 8 47 1.6 3.2 0.00 0.15 0.00 98 1013.2
20260507015003 8 46 1.6 1.6 0.00 0.18 0.00 98 1013.3
20260507014903 8 45 0.0 1.6 0.00 0.18 0.00 98 1013.3
20260507014803 8 45 0.0 1.6 0.00 0.18 0.00 98 1013.2
20260507014703 8 46 0.0 1.6 0.00 0.18 0.00 98 1013.4
20260507014603 8 45 0.0 1.6 0.00 0.18 0.00 98 1013.2
20260507014503 8 46 0.0 1.6 0.00 0.18 0.00 98 1013.3
20260507014424 8 46 0.0 1.6 0.00 0.18 0.00 98 1013.3
20260507014324 8 45 0.0 1.6 0.00 0.18 0.00 98 1013.3
20260507014203 8 47 0.0 3.2 0.00 0.18 0.00 98 1013.1
20260507014103 8 47 1.6 3.2 0.00 0.18 0.00 98 1013.4
20260507014003 8 51 1.6 3.2 0.00 0.18 0.00 98 1013.5
20260507013903 8 52 1.6 3.2 0.00 0.18 0.00 98 1013.4
20260507013824 8 51 1.6 3.2 0.00 0.18 0.00 98 1013.4
20260507013703 8 51 1.6 3.2 0.00 0.18 0.00 98 1013.3
20260507013603 8 52 1.6 3.2 0.00 0.18 0.00 98 1013.3
20260507013503 8 52 1.6 3.2 0.00 0.18 0.00 98 1013.3
20260507013403 8 52 1.6 3.2 0.00 0.18 0.00 98 1013.2
20260507013303 8 52 1.6 3.2 0.00 0.18 0.00 98 1013.4
20260507013203 8 51 1.6 3.2 0.00 0.18 0.00 98 1013.3
20260507013124 8 51 1.6 3.2 0.00 0.18 0.00 98 1013.3
20260507013003 8 48 1.6 3.2 0.00 0.18 0.00 98 1013.5
20260507012903 8 49 1.6 3.2 0.00 0.18 0.00 98 1013.6
20260507012803 8 49 1.6 3.2 0.00 0.18 0.00 98 1013.5
20260507012703 8 48 1.6 3.2 0.00 0.18 0.00 98 1013.4
20260507012603 8 48 1.6 3.2 0.00 0.18 0.00 98 1013.4
20260507012503 8 48 1.6 3.2 0.00 0.18 0.00 98 1013.4
20260507012403 8 47 1.6 3.2 0.00 0.18 0.00 98 1013.4
20260507012306 8 47 1.6 3.2 0.00 0.18 0.00 98 1013.4
20260507012203 8 47 1.6 3.2 0.00 0.18 0.00 98 1013.4
20260507012103 8 48 1.6 3.2 0.00 0.18 0.00 98 1013.3
20260507012003 8 47 1.6 3.2 0.00 0.18 0.00 98 1013.5
20260507011903 8 46 1.6 3.2 0.00 0.18 0.00 98 1013.4
20260507011803 8 43 0.0 1.6 0.00 0.18 0.00 98 1013.4
20260507011724 8 43 0.0 1.6 0.00 0.18 0.00 98 1013.6
20260507011603 8 43 0.0 1.6 0.00 0.18 0.00 98 1013.4
20260507011503 8 43 0.0 1.6 0.00 0.18 0.00 98 1013.4
20260507011424 8 44 0.0 1.6 0.00 0.18 0.00 98 1013.5
20260507011303 8 43 1.6 1.6 0.00 0.18 0.00 98 1013.4
20260507011224 8 43 1.6 1.6 0.00 0.18 0.00 98 1013.6
20260507011124 8 43 1.6 1.6 0.00 0.18 0.00 98 1013.6
20260507011003 8 43 0.0 1.6 0.00 0.18 0.00 98 1013.6
20260507010904 8 42 0.0 1.6 0.00 0.18 0.00 98 1013.4
20260507010803 8 42 0.0 1.6 0.00 0.18 0.00 98 1013.4
20260507010724 8 42 0.0 1.6 0.00 0.18 0.00 98 1013.4
20260507010603 8 42 0.0 1.6 0.00 0.18 0.00 98 1013.4
20260507010503 8 42 0.0 1.6 0.00 0.18 0.00 98 1013.5
20260507010403 8 42 0.0 1.6 0.00 0.18 0.00 98 1013.4
20260507010303 8 40 0.0 1.6 0.00 0.18 0.00 98 1013.6
20260507010203 8 40 0.0 1.6 0.00 0.18 0.00 98 1013.4
20260507010024 8 0 0.0 0.0 0.00 0.18 0.00 98 1013.4
20260507005903 8 0 0.0 0.0 0.00 0.18 0.00 98 1013.2
20260507005803 8 0 0.0 0.0 0.00 0.18 0.00 98 1013.5
20260507005703 8 0 0.0 0.0 0.00 0.18 0.00 98 1013.4
20260507005603 8 0 0.0 0.0 0.00 0.18 0.00 98 1013.6
20260507005503 8 0 0.0 0.0 0.00 0.18 0.00 98 1013.6
20260507005403 8 0 0.0 0.0 0.00 0.18 0.00 98 1013.5
20260507005305 8 0 0.0 0.0 0.00 0.18 0.00 98 1013.6
20260507005203 8 0 0.0 0.0 0.00 0.18 0.00 98 1013.4
20260507005103 8 0 0.0 0.0 0.00 0.18 0.00 98 1013.4
20260507005003 8 0 0.0 0.0 0.00 0.18 0.00 98 1013.5
20260507004903 8 0 0.0 0.0 0.00 0.18 0.00 98 1013.8
20260507004803 8 0 0.0 0.0 0.00 0.18 0.00 98 1013.6
20260507004703 8 0 0.0 0.0 0.00 0.18 0.00 98 1013.5
20260507004603 8 0 0.0 0.0 0.00 0.18 0.00 98 1013.5
20260507004503 8 0 0.0 0.0 0.00 0.18 0.00 98 1013.7
20260507004403 8 0 0.0 0.0 0.00 0.18 0.00 98 1013.6
20260507004302 8 0 0.0 0.0 0.00 0.18 0.00 98 1013.6
20260507004202 8 0 0.0 0.0 0.00 0.18 0.00 98 1013.6
20260507004123 8 0 0.0 0.0 0.00 0.18 0.00 98 1013.6
20260507004003 8 0 0.0 0.0 0.00 0.18 0.00 98 1013.4
20260507003902 8 0 0.0 0.0 0.00 0.18 0.00 97 1013.6
20260507003803 8 0 0.0 0.0 0.00 0.18 0.00 97 1013.6
20260507003703 8 0 0.0 0.0 0.00 0.18 0.00 97 1013.6
20260507003603 8 0 0.0 0.0 0.00 0.18 0.00 97 1013.5
20260507003502 8 0 0.0 0.0 0.00 0.18 0.00 97 1013.7
20260507003402 8 0 0.0 0.0 0.00 0.18 0.00 97 1013.7
20260507003302 8 0 0.0 0.0 0.00 0.18 0.00 97 1013.6
20260507003203 8 0 0.0 0.0 0.00 0.18 0.00 97 1013.6
20260507003124 8 0 0.0 0.0 0.00 0.18 0.00 97 1013.5
20260507003003 8 0 0.0 0.0 0.00 0.18 0.00 97 1013.6
20260507002923 8 44 0.0 1.6 0.00 0.18 0.00 97 1013.7
20260507002803 8 44 0.0 1.6 0.00 0.18 0.00 97 1013.7
20260507002724 8 44 0.0 1.6 0.00 0.18 0.00 97 1013.5
20260507002602 8 44 0.0 1.6 0.00 0.18 0.00 97 1013.7
20260507002503 9 44 0.0 1.6 0.00 0.18 0.00 97 1013.6
20260507002402 9 45 0.0 1.6 0.00 0.18 0.00 97 1013.5
20260507002306 9 40 0.0 1.6 0.00 0.18 0.00 97 1013.8
20260507002223 9 40 0.0 1.6 0.00 0.18 0.00 97 1013.8
20260507002102 9 41 0.0 1.6 0.00 0.18 0.00 97 1013.6
20260507002002 9 51 1.6 3.2 0.00 0.18 0.00 97 1013.7
20260507001903 9 51 1.6 3.2 0.00 0.18 0.00 97 1013.7
20260507001803 9 51 1.6 3.2 0.00 0.18 0.00 97 1013.7
20260507001703 9 52 1.6 3.2 0.00 0.18 0.00 97 1013.8
20260507001602 9 51 1.6 3.2 0.00 0.18 0.00 97 1013.8
20260507001503 9 51 1.6 3.2 0.00 0.18 0.00 97 1013.8
20260507001403 9 50 1.6 3.2 0.00 0.18 0.00 97 1013.7
20260507001302 9 51 1.6 3.2 0.00 0.18 0.00 97 1013.8
20260507001203 9 51 1.6 3.2 0.00 0.18 0.00 97 1013.8
20260507001102 9 50 1.6 3.2 0.00 0.18 0.00 97 1013.8
20260507001024 9 50 1.6 3.2 0.00 0.18 0.00 97 1013.9
20260507000903 9 44 1.6 3.2 0.00 0.18 0.00 97 1013.9
20260507000802 9 43 1.6 3.2 0.00 0.18 0.00 97 1013.9
20260507000702 9 43 0.0 3.2 0.00 0.18 0.00 97 1013.9
20260507000603 9 41 0.0 3.2 0.00 0.18 0.00 97 1013.9
20260507000503 9 39 0.0 3.2 0.00 0.18 0.00 97 1013.9
20260507000423 9 39 0.0 3.2 0.00 0.18 0.00 97 1013.9
20260507000303 9 28 0.0 1.6 0.00 0.18 0.00 97 1013.9
20260507000204 9 28 0.0 1.6 0.00 0.18 0.00 97 1013.9
20260507000003 9 0 0.0 0.0 0.00 0.18 0.00 97 1013.9
20260506235902 9 0 0.0 0.0 0.00 0.18 0.00 97 1013.8
20260506235802 9 0 0.0 0.0 0.00 0.18 0.00 97 1013.9
20260506235724 9 0 0.0 0.0 0.00 0.18 0.00 97 1013.7
20260506235603 9 0 0.0 0.0 0.00 0.18 0.00 97 1013.7
20260506235503 9 0 0.0 0.0 0.00 0.18 0.00 97 1014.0
20260506235403 9 0 0.0 0.0 0.00 0.18 0.00 97 1013.8
20260506235306 9 0 0.0 0.0 0.00 0.18 0.00 97 1013.7
20260506235203 9 0 0.0 0.0 0.00 0.18 0.00 97 1013.8
20260506235124 9 22 0.0 1.6 0.00 0.18 0.00 97 1013.9
20260506235023 9 22 0.0 1.6 0.00 0.18 0.00 97 1013.9
20260506234903 9 20 0.0 1.6 0.00 0.18 0.00 96 1014.0
20260506234823 9 20 0.0 1.6 0.00 0.18 0.00 96 1014.0
20260506234724 9 20 0.0 1.6 0.00 0.18 0.00 96 1014.0
20260506234602 9 19 0.0 1.6 0.00 0.18 0.00 96 1014.0
20260506234523 9 19 0.0 1.6 0.00 0.18 0.00 96 1014.1
20260506234402 9 19 0.0 1.6 0.00 0.18 0.00 96 1014.1
20260506234303 9 19 0.0 1.6 0.00 0.18 0.00 96 1014.0
20260506234203 9 19 0.0 1.6 0.00 0.18 0.00 96 1013.9
20260506234103 10 19 0.0 1.6 0.00 0.18 0.00 96 1014.0
20260506234003 10 18 0.0 1.6 0.00 0.18 0.00 96 1014.1
20260506233902 10 18 0.0 1.6 0.00 0.18 0.00 96 1014.1
20260506233803 10 18 0.0 1.6 0.00 0.18 0.00 96 1014.0
20260506233724 10 18 0.0 1.6 0.00 0.18 0.00 96 1014.0
20260506233603 9 0 0.0 0.0 0.00 0.18 0.00 96 1014.1
20260506233503 9 0 0.0 0.0 0.00 0.18 0.00 96 1014.1
20260506233403 9 0 0.0 0.0 0.00 0.18 0.00 96 1014.0
20260506233303 9 0 0.0 0.0 0.00 0.18 0.00 96 1014.1
20260506233202 10 0 0.0 0.0 0.00 0.18 0.00 96 1014.2
20260506233124 10 0 0.0 0.0 0.00 0.18 0.00 96 1014.0
20260506233003 10 0 0.0 0.0 0.00 0.18 0.00 96 1014.0
20260506232903 10 0 0.0 0.0 0.00 0.18 0.00 96 1014.0
20260506232824 10 0 0.0 0.0 0.00 0.18 0.00 96 1014.0
20260506232703 10 0 0.0 0.0 0.00 0.18 0.00 96 1014.1
20260506232603 10 0 0.0 0.0 0.00 0.18 0.00 96 1014.1
20260506232502 10 0 0.0 0.0 0.00 0.18 0.00 96 1014.0
20260506232403 10 0 0.0 0.0 0.00 0.18 0.00 96 1014.1
20260506232306 10 0 0.0 0.0 0.00 0.18 0.00 96 1014.0
20260506232202 10 0 0.0 0.0 0.00 0.18 0.00 96 1014.1
20260506232124 10 0 0.0 0.0 0.00 0.18 0.00 96 1014.1
20260506232024 10 0 0.0 0.0 0.00 0.18 0.00 96 1014.0
20260506231903 10 0 0.0 0.0 0.00 0.18 0.00 96 1014.0
20260506231803 10 0 0.0 0.0 0.00 0.18 0.00 96 1014.0
20260506231703 10 0 0.0 0.0 0.00 0.18 0.00 96 1014.1
20260506231603 10 0 0.0 0.0 0.00 0.18 0.00 96 1013.9
20260506231503 10 0 0.0 0.0 0.00 0.18 0.00 96 1013.9
20260506231403 10 0 0.0 0.0 0.00 0.18 0.00 95 1014.0
20260506231323 10 0 0.0 0.0 0.00 0.18 0.00 95 1013.8
20260506231224 10 0 0.0 0.0 0.00 0.18 0.00 95 1013.9
20260506231103 10 0 0.0 0.0 0.00 0.18 0.00 95 1014.1
20260506231003 10 0 0.0 0.0 0.00 0.18 0.00 95 1014.2
20260506230903 10 0 0.0 0.0 0.00 0.18 0.00 95 1014.0
20260506230803 10 0 0.0 0.0 0.00 0.18 0.00 95 1014.0
20260506230703 10 0 0.0 0.0 0.00 0.18 0.00 95 1014.2
20260506230624 10 0 0.0 0.0 0.00 0.18 0.00 95 1014.2
20260506230502 10 0 0.0 0.0 0.00 0.18 0.00 95 1014.2
20260506230402 10 0 0.0 0.0 0.00 0.18 0.00 95 1014.2
20260506230302 10 0 0.0 0.0 0.00 0.18 0.00 95 1014.2
20260506230203 10 0 0.0 0.0 0.00 0.18 0.00 95 1014.2
20260506230103 10 0 0.0 0.0 0.00 0.18 0.00 95 1014.1
20260506230003 10 0 0.0 0.0 0.00 0.18 0.00 95 1014.1
20260506225903 10 0 0.0 0.0 0.00 0.18 0.00 95 1014.2
20260506225802 10 0 0.0 0.0 0.00 0.18 0.00 95 1014.2
20260506225703 10 0 0.0 0.0 0.00 0.18 0.00 95 1014.1
20260506225603 10 0 0.0 0.0 0.00 0.18 0.00 95 1014.3
20260506225503 10 0 0.0 0.0 0.00 0.18 0.00 95 1014.1
20260506225403 10 0 0.0 0.0 0.00 0.18 0.00 95 1014.3
20260506225305 10 0 0.0 0.0 0.00 0.18 0.00 95 1014.0
20260506225203 10 0 0.0 0.0 0.00 0.18 0.00 95 1014.0
20260506225124 10 0 0.0 0.0 0.00 0.18 0.00 95 1014.2
20260506225003 10 0 0.0 0.0 0.00 0.18 0.00 95 1014.2
20260506224903 10 0 0.0 0.0 0.00 0.18 0.00 95 1014.3
20260506224802 10 0 0.0 0.0 0.00 0.18 0.00 94 1014.3
20260506224724 10 0 0.0 0.0 0.00 0.18 0.00 94 1014.1
20260506224603 10 0 0.0 0.0 0.00 0.18 0.00 94 1014.3
20260506224503 10 0 0.0 0.0 0.00 0.18 0.00 94 1014.4
20260506224423 10 0 0.0 0.0 0.00 0.18 0.00 94 1014.3
20260506224303 10 0 0.0 0.0 0.00 0.18 0.00 94 1014.3
20260506224224 10 0 0.0 0.0 0.00 0.18 0.00 94 1014.3
20260506224103 10 0 0.0 0.0 0.00 0.18 0.00 94 1014.4
20260506224003 11 0 0.0 0.0 0.00 0.18 0.00 94 1014.3
20260506223903 11 0 0.0 0.0 0.00 0.18 0.00 94 1014.4
20260506223824 11 0 0.0 0.0 0.00 0.18 0.00 94 1014.4
20260506223723 11 0 0.0 0.0 0.00 0.18 0.00 94 1014.5
20260506223624 11 0 0.0 0.0 0.00 0.18 0.00 94 1014.2
20260506223503 11 0 0.0 0.0 0.00 0.18 0.00 94 1014.2
20260506223403 11 0 0.0 0.0 0.00 0.18 0.00 94 1014.4
20260506223303 11 0 0.0 0.0 0.00 0.18 0.00 94 1014.4
20260506223202 11 0 0.0 0.0 0.00 0.18 0.00 94 1014.5
20260506223103 11 0 0.0 0.0 0.00 0.18 0.00 94 1014.5
20260506223024 11 0 0.0 0.0 0.00 0.18 0.00 94 1014.4
20260506222903 11 0 0.0 0.0 0.00 0.18 0.00 94 1014.5
20260506222803 11 0 0.0 0.0 0.00 0.18 0.00 94 1014.4
20260506222703 11 0 0.0 0.0 0.00 0.18 0.00 94 1014.5
20260506222602 11 0 0.0 0.0 0.00 0.18 0.00 94 1014.4
20260506222503 11 0 0.0 0.0 0.00 0.18 0.00 94 1014.5
20260506222403 11 0 0.0 0.0 0.00 0.18 0.00 94 1014.4
20260506222305 11 0 0.0 0.0 0.00 0.18 0.00 94 1014.4
20260506222202 11 0 0.0 0.0 0.00 0.18 0.00 94 1014.4
20260506222103 11 0 0.0 0.0 0.00 0.18 0.00 94 1014.5
20260506222003 11 0 0.0 0.0 0.00 0.18 0.00 94 1014.5
20260506221924 11 0 0.0 0.0 0.00 0.18 0.00 94 1014.5
20260506221803 11 0 0.0 0.0 0.00 0.18 0.00 94 1014.5
20260506221703 11 0 0.0 0.0 0.00 0.18 0.00 94 1014.5
20260506221603 11 0 0.0 0.0 0.00 0.18 0.00 94 1014.6
20260506221524 11 0 0.0 0.0 0.00 0.18 0.00 94 1014.6
20260506221403 11 0 0.0 0.0 0.00 0.18 0.00 93 1014.6
20260506221303 11 0 0.0 0.0 0.00 0.18 0.00 93 1014.6
20260506221224 11 0 0.0 0.0 0.00 0.18 0.00 93 1014.6
20260506221103 11 0 0.0 0.0 0.00 0.18 0.00 93 1014.6
20260506221002 11 0 0.0 0.0 0.00 0.18 0.00 93 1014.6
20260506220903 11 0 0.0 0.0 0.00 0.18 0.00 93 1014.7
20260506220803 11 0 0.0 0.0 0.00 0.18 0.00 93 1014.8
20260506220724 11 0 0.0 0.0 0.00 0.18 0.00 93 1014.8
20260506220603 11 0 0.0 0.0 0.00 0.18 0.00 93 1014.7
20260506220503 11 0 0.0 0.0 0.00 0.18 0.00 93 1014.7
20260506220402 11 0 0.0 0.0 0.00 0.18 0.00 93 1014.9
20260506220324 11 0 0.0 0.0 0.00 0.18 0.00 93 1014.8
20260506220224 11 0 0.0 0.0 0.00 0.18 0.00 93 1014.7
20260506220025 11 0 0.0 0.0 0.00 0.18 0.00 93 1014.7
20260506215903 11 0 0.0 0.0 0.00 0.18 0.18 93 1014.8
20260506215803 11 0 0.0 0.0 0.00 0.18 0.18 93 1014.8
20260506215702 11 0 0.0 0.0 0.00 0.18 0.18 93 1014.7
20260506215602 11 0 0.0 0.0 0.00 0.18 0.18 93 1014.7
20260506215503 11 0 0.0 0.0 0.00 0.18 0.18 93 1014.7
20260506215403 11 0 0.0 0.0 0.00 0.18 0.18 92 1014.8
20260506215305 11 0 0.0 0.0 0.00 0.18 0.18 92 1014.8
20260506215224 11 0 0.0 0.0 0.00 0.18 0.18 92 1014.8
20260506215103 11 0 0.0 0.0 0.00 0.18 0.18 92 1014.8
20260506215003 11 0 0.0 0.0 0.00 0.18 0.18 92 1014.6
20260506214903 11 16 0.0 1.6 0.00 0.18 0.18 92 1014.6
20260506214803 11 16 0.0 1.6 0.00 0.18 0.18 92 1014.8
20260506214703 11 16 0.0 1.6 0.00 0.18 0.18 92 1014.7
20260506214603 11 16 0.0 1.6 0.00 0.18 0.18 92 1014.8
20260506214503 11 16 0.0 1.6 0.00 0.18 0.18 92 1014.8
20260506214403 11 16 0.0 1.6 0.00 0.18 0.18 92 1014.9
20260506214303 11 16 0.0 1.6 0.00 0.18 0.18 92 1014.6
20260506214203 11 16 0.0 1.6 0.00 0.18 0.18 92 1014.5
20260506214103 11 16 0.0 1.6 0.00 0.18 0.18 92 1014.8
20260506214003 11 16 0.0 1.6 0.00 0.18 0.18 92 1014.8
20260506213902 11 16 0.0 1.6 0.00 0.18 0.18 92 1014.8
20260506213803 11 0 0.0 0.0 0.00 0.18 0.18 92 1014.8
20260506213703 11 0 0.0 0.0 0.00 0.18 0.18 92 1014.7
20260506213603 11 17 0.0 1.6 0.00 0.18 0.18 92 1014.7
20260506213503 11 17 0.0 1.6 0.00 0.18 0.18 92 1014.7
20260506213403 11 17 0.0 1.6 0.00 0.18 0.18 92 1014.7
20260506213303 11 17 0.0 1.6 0.00 0.18 0.18 92 1014.8
20260506213224 11 17 0.0 1.6 0.00 0.18 0.18 92 1014.9
20260506213103 11 17 0.0 1.6 0.00 0.18 0.18 92 1014.8
20260506213003 11 17 0.0 1.6 0.00 0.18 0.18 91 1014.8
20260506212903 11 17 0.0 1.6 0.00 0.18 0.18 91 1014.7
20260506212803 11 17 0.0 1.6 0.00 0.18 0.18 91 1014.8
20260506212702 11 17 0.0 1.6 0.00 0.18 0.18 91 1014.7
20260506212624 11 17 0.0 1.6 0.00 0.18 0.18 91 1014.7
20260506212503 11 16 0.0 1.6 0.00 0.18 0.18 91 1014.8
20260506212402 11 16 0.0 1.6 0.00 0.18 0.18 91 1014.8
20260506212306 11 16 0.0 1.6 0.00 0.18 0.18 91 1014.9
20260506212224 11 16 0.0 1.6 0.00 0.18 0.18 91 1014.8
20260506212103 11 16 0.0 1.6 0.00 0.18 0.18 91 1014.8
20260506212003 11 16 0.0 3.2 0.00 0.18 0.18 91 1014.7
20260506211902 11 16 0.0 3.2 0.00 0.18 0.18 91 1014.9
20260506211803 11 16 0.0 3.2 0.00 0.18 0.18 91 1014.8
20260506211702 11 16 0.0 3.2 0.00 0.18 0.18 91 1014.9
20260506211624 11 16 0.0 3.2 0.00 0.18 0.18 91 1014.7
20260506211503 11 16 0.0 3.2 0.00 0.18 0.18 91 1014.8
20260506211403 11 16 0.0 3.2 0.00 0.18 0.18 91 1014.8
20260506211303 11 17 1.6 3.2 0.00 0.18 0.18 91 1014.7
20260506211203 11 17 0.0 3.2 0.00 0.18 0.18 91 1014.7
20260506211103 11 17 1.6 3.2 0.00 0.18 0.18 91 1014.9
20260506211003 11 17 0.0 1.6 0.00 0.18 0.18 91 1014.7
20260506210903 11 17 0.0 1.6 0.00 0.18 0.18 91 1014.8
20260506210803 11 17 0.0 1.6 0.00 0.18 0.18 91 1014.8
20260506210703 11 17 0.0 1.6 0.00 0.18 0.18 91 1014.8
20260506210624 11 17 0.0 1.6 0.00 0.18 0.18 91 1014.8
20260506210503 11 17 0.0 1.6 0.00 0.18 0.18 91 1014.8
20260506210403 11 17 0.0 1.6 0.00 0.18 0.18 90 1014.6
20260506210303 11 17 0.0 1.6 0.00 0.18 0.18 90 1014.8
20260506210203 11 17 0.0 1.6 0.00 0.18 0.18 90 1014.6
20260506210124 11 17 0.0 1.6 0.00 0.18 0.18 90 1014.7
20260506210003 11 17 0.0 1.6 0.00 0.18 0.18 90 1014.9
20260506205903 11 17 0.0 1.6 0.00 0.18 0.18 90 1014.6
20260506205803 11 17 0.0 1.6 0.00 0.18 0.18 90 1014.8
20260506205724 11 17 0.0 1.6 0.00 0.18 0.18 90 1014.8
20260506205603 11 17 0.0 1.6 0.00 0.18 0.18 90 1015.0
20260506205503 11 17 0.0 1.6 0.00 0.18 0.18 90 1014.7
20260506205403 11 17 0.0 1.6 0.00 0.18 0.18 90 1014.7
20260506205305 11 16 0.0 1.6 0.00 0.18 0.18 90 1014.9
20260506205224 11 16 0.0 1.6 0.00 0.18 0.18 90 1014.9
20260506205103 11 16 0.0 1.6 0.00 0.18 0.18 90 1014.9
20260506205003 11 16 0.0 1.6 0.00 0.18 0.18 90 1014.8
20260506204903 11 16 0.0 1.6 0.00 0.18 0.18 90 1014.9
20260506204803 11 16 0.0 1.6 0.00 0.18 0.18 89 1014.9
20260506204703 11 16 1.6 1.6 0.00 0.18 0.18 89 1014.7
20260506204624 11 16 1.6 1.6 0.00 0.18 0.18 89 1014.8
20260506204503 11 16 1.6 1.6 0.00 0.18 0.18 89 1014.8
20260506204424 11 16 1.6 1.6 0.00 0.18 0.18 89 1014.7
20260506204303 11 16 1.6 1.6 0.00 0.18 0.18 89 1014.7
20260506204203 11 16 1.6 1.6 0.00 0.18 0.18 89 1014.9
20260506204124 11 16 1.6 1.6 0.00 0.18 0.18 89 1014.8
20260506204003 11 16 1.6 1.6 0.00 0.18 0.18 89 1014.7
20260506203903 12 16 1.6 1.6 0.00 0.18 0.18 89 1014.9
20260506203803 12 16 1.6 1.6 0.00 0.18 0.18 89 1014.9
20260506203703 12 16 1.6 1.6 0.00 0.18 0.18 89 1014.7
20260506203603 12 13 1.6 3.2 0.00 0.18 0.18 89 1014.8
20260506203503 12 13 1.6 3.2 0.00 0.18 0.18 89 1014.8
20260506203403 12 14 1.6 3.2 0.00 0.18 0.18 89 1014.8
20260506203303 12 13 1.6 3.2 0.00 0.18 0.18 89 1014.8
20260506203203 12 10 1.6 4.8 0.00 0.18 0.18 88 1014.8
20260506203103 12 10 1.6 4.8 0.00 0.18 0.18 88 1014.7
20260506203003 12 11 3.2 4.8 0.00 0.18 0.18 88 1014.6
20260506202903 12 11 1.6 4.8 0.00 0.18 0.18 88 1014.7
20260506202803 12 10 3.2 4.8 0.00 0.18 0.18 88 1014.6
20260506202703 12 10 3.2 4.8 0.00 0.18 0.18 88 1014.5
20260506202603 12 10 3.2 4.8 0.00 0.18 0.18 88 1014.6
20260506202503 12 12 3.2 4.8 0.00 0.18 0.18 88 1014.6
20260506202404 12 12 3.2 4.8 0.00 0.18 0.18 88 1014.7
20260506202306 12 11 3.2 4.8 0.00 0.18 0.18 89 1014.7
20260506202203 12 12 3.2 4.8 0.00 0.18 0.18 89 1014.5
20260506202103 12 12 1.6 3.2 0.00 0.18 0.18 89 1014.5
20260506202024 12 12 1.6 3.2 0.00 0.18 0.18 89 1014.5
20260506201903 12 12 3.2 4.8 0.00 0.18 0.18 88 1014.6
20260506201803 12 13 3.2 4.8 0.00 0.18 0.18 88 1014.5
20260506201703 12 13 3.2 4.8 0.00 0.18 0.18 88 1014.6
20260506201603 12 13 3.2 4.8 0.00 0.18 0.18 88 1014.5
20260506201503 12 13 3.2 4.8 0.00 0.18 0.18 88 1014.5
20260506201403 12 13 3.2 4.8 0.00 0.18 0.18 88 1014.6
20260506201303 12 13 1.6 4.8 0.00 0.18 0.18 88 1014.5
20260506201203 12 15 1.6 4.8 0.00 0.18 0.18 88 1014.5
20260506201124 12 17 1.6 4.8 0.00 0.18 0.18 88 1014.4
20260506201003 12 16 1.6 4.8 0.00 0.18 0.18 88 1014.5
20260506200903 12 17 1.6 3.2 0.00 0.18 0.18 88 1014.5
20260506200803 12 17 1.6 3.2 0.00 0.18 0.18 88 1014.5
20260506200703 12 17 1.6 3.2 0.00 0.18 0.18 88 1014.5
20260506200603 12 17 1.6 3.2 0.00 0.18 0.18 88 1014.7
20260506200503 12 16 1.6 3.2 0.00 0.18 0.18 88 1014.6
20260506200403 12 16 1.6 3.2 0.00 0.18 0.18 88 1014.6
20260506200303 12 17 1.6 3.2 0.00 0.18 0.18 88 1014.5
20260506200203 12 16 1.6 3.2 0.00 0.18 0.18 88 1014.6
20260506200124 12 16 1.6 3.2 0.00 0.18 0.18 88 1014.6
20260506200024 12 16 1.6 3.2 0.00 0.18 0.18 88 1014.7
20260506195903 12 16 1.6 3.2 0.00 0.18 0.18 88 1014.6
20260506195803 12 16 1.6 3.2 0.00 0.18 0.18 88 1014.7
20260506195703 12 17 1.6 3.2 0.00 0.18 0.18 88 1014.5
20260506195603 12 17 1.6 3.2 0.00 0.18 0.18 88 1014.5
20260506195503 12 17 1.6 3.2 0.00 0.18 0.18 88 1014.5
20260506195403 12 19 1.6 3.2 0.00 0.18 0.18 88 1014.5
20260506195305 12 19 1.6 3.2 0.00 0.18 0.18 88 1014.6
20260506195203 12 19 1.6 3.2 0.00 0.18 0.18 88 1014.7
20260506195103 12 20 1.6 3.2 0.00 0.18 0.18 88 1014.6
20260506195003 12 20 1.6 3.2 0.00 0.18 0.18 88 1014.7
20260506194903 12 23 1.6 3.2 0.00 0.18 0.18 88 1014.6
20260506194803 12 23 1.6 3.2 0.00 0.18 0.18 88 1014.7
20260506194703 12 21 1.6 3.2 0.00 0.18 0.18 87 1014.6
20260506194603 12 20 1.6 3.2 0.00 0.18 0.18 87 1014.4
20260506194503 12 19 1.6 3.2 0.00 0.18 0.18 87 1014.6
20260506194403 12 19 1.6 3.2 0.00 0.18 0.18 87 1014.6
20260506194303 12 17 1.6 4.8 0.00 0.18 0.18 87 1014.5
20260506194203 12 14 1.6 4.8 0.00 0.18 0.18 87 1014.4
20260506194103 12 13 1.6 4.8 0.00 0.18 0.18 87 1014.5
20260506194003 12 12 3.2 4.8 0.00 0.18 0.18 87 1014.6
20260506193903 12 12 1.6 4.8 0.00 0.18 0.18 87 1014.5
20260506193803 13 11 1.6 4.8 0.00 0.18 0.18 87 1014.5
20260506193703 13 11 1.6 4.8 0.00 0.18 0.18 87 1014.6
20260506193603 13 10 1.6 4.8 0.00 0.18 0.18 87 1014.6
20260506193503 13 9 1.6 4.8 0.00 0.18 0.18 87 1014.4
20260506193424 13 10 3.2 4.8 0.00 0.18 0.18 87 1014.8
20260506193303 13 11 3.2 4.8 0.00 0.18 0.18 87 1014.7
20260506193203 13 13 1.6 4.8 0.00 0.18 0.18 87 1014.7
20260506193103 13 16 1.6 3.2 0.00 0.18 0.18 87 1014.6
20260506193003 13 17 1.6 3.2 0.00 0.18 0.18 87 1014.5
20260506192903 13 17 1.6 3.2 0.00 0.18 0.18 87 1014.5
20260506192803 13 17 1.6 3.2 0.00 0.18 0.18 86 1014.6
20260506192724 13 17 1.6 3.2 0.00 0.18 0.18 86 1014.8
20260506192603 13 17 1.6 3.2 0.00 0.18 0.18 86 1014.8
20260506192503 13 17 1.6 3.2 0.00 0.18 0.18 86 1014.8
20260506192424 13 17 1.6 3.2 0.00 0.18 0.18 86 1014.8
20260506192305 13 18 1.6 3.2 0.00 0.18 0.18 86 1014.6
20260506192203 13 13 1.6 4.8 0.00 0.18 0.18 86 1014.7
20260506192124 13 13 1.6 4.8 0.00 0.18 0.18 86 1014.7
20260506192003 13 12 1.6 4.8 0.00 0.18 0.18 86 1014.6
20260506191903 13 12 1.6 4.8 0.00 0.18 0.18 86 1014.6
20260506191803 13 11 1.6 4.8 0.00 0.18 0.18 86 1014.6
20260506191703 13 10 1.6 4.8 0.00 0.18 0.18 86 1014.5
20260506191603 13 9 1.6 4.8 0.00 0.18 0.18 85 1014.5
20260506191503 13 9 1.6 4.8 0.00 0.18 0.18 85 1014.6
20260506191403 13 7 1.6 6.4 0.00 0.18 0.18 85 1014.6
20260506191303 13 7 1.6 6.4 0.00 0.18 0.18 85 1014.5
20260506191203 13 6 1.6 6.4 0.00 0.18 0.18 85 1014.5
20260506191103 13 8 1.6 6.4 0.00 0.18 0.18 85 1014.5
20260506191003 13 8 1.6 6.4 0.00 0.18 0.18 85 1014.6
20260506190903 13 8 1.6 6.4 0.00 0.18 0.18 85 1014.6
20260506190803 13 8 1.6 6.4 0.00 0.18 0.18 84 1014.6
20260506190724 13 9 1.6 6.4 0.00 0.18 0.18 84 1014.5
20260506190624 13 9 1.6 6.4 0.00 0.18 0.18 84 1014.5
20260506190503 13 7 1.6 6.4 0.00 0.18 0.18 84 1014.4
20260506190403 13 7 1.6 4.8 0.00 0.18 0.18 84 1014.4
20260506190324 13 7 1.6 4.8 0.00 0.18 0.18 84 1014.4
20260506190203 13 9 3.2 4.8 0.00 0.18 0.18 84 1014.5
20260506190003 13 11 3.2 4.8 0.00 0.18 0.18 83 1014.3
20260506185903 13 10 3.2 9.7 0.00 0.18 0.18 83 1014.4
20260506185824 13 10 3.2 9.7 0.00 0.18 0.18 83 1014.4
20260506185703 13 10 3.2 9.7 0.00 0.18 0.18 83 1014.5
20260506185603 14 11 3.2 9.7 0.00 0.18 0.18 83 1014.6
20260506185503 14 11 4.8 9.7 0.00 0.18 0.18 83 1014.5
20260506185403 14 15 4.8 9.7 0.00 0.18 0.18 83 1014.5
20260506185324 14 15 4.8 9.7 0.00 0.18 0.18 83 1014.7
20260506185203 14 15 3.2 9.7 0.00 0.18 0.18 83 1014.5
20260506185103 14 14 3.2 9.7 0.00 0.18 0.18 82 1014.5
20260506185003 14 14 3.2 9.7 0.00 0.18 0.18 82 1014.5
20260506184903 14 14 3.2 9.7 0.00 0.18 0.18 82 1014.7
20260506184824 14 14 3.2 9.7 0.00 0.18 0.18 82 1014.7
20260506184703 14 14 3.2 9.7 0.00 0.18 0.18 82 1014.3
20260506184603 14 15 3.2 9.7 0.00 0.18 0.18 82 1014.7
20260506184503 14 14 3.2 9.7 0.00 0.18 0.18 82 1014.5
20260506184424 14 13 3.2 9.7 0.00 0.18 0.18 82 1014.5
20260506184324 14 11 3.2 4.8 0.00 0.18 0.18 82 1014.5
20260506184203 14 12 3.2 4.8 0.00 0.18 0.18 82 1014.6
20260506184103 14 12 3.2 4.8 0.00 0.18 0.18 82 1014.4
20260506184003 14 13 3.2 4.8 0.00 0.18 0.18 82 1014.5
20260506183903 14 13 3.2 4.8 0.00 0.18 0.18 82 1014.5
20260506183803 14 13 3.2 4.8 0.00 0.18 0.18 82 1014.5
20260506183703 14 12 3.2 9.7 0.00 0.18 0.18 82 1014.4
20260506183603 14 11 3.2 9.7 0.00 0.18 0.18 82 1014.6
20260506183503 14 16 3.2 9.7 0.00 0.18 0.18 82 1014.4
20260506183403 14 16 3.2 9.7 0.00 0.18 0.18 82 1014.6
20260506183303 14 16 3.2 9.7 0.00 0.18 0.18 81 1014.6
20260506183203 13 15 3.2 9.7 0.00 0.18 0.18 81 1014.4
20260506183103 13 16 3.2 9.7 0.00 0.18 0.18 81 1014.6
20260506183003 13 16 3.2 9.7 0.00 0.18 0.18 81 1014.4
20260506182903 13 16 3.2 9.7 0.00 0.18 0.18 81 1014.4
20260506182803 13 16 3.2 9.7 0.00 0.18 0.18 81 1014.7
20260506182703 13 16 3.2 9.7 0.00 0.18 0.18 81 1014.6
20260506182603 13 18 3.2 6.4 0.00 0.18 0.18 81 1014.4
20260506182503 13 17 3.2 6.4 0.00 0.18 0.18 81 1014.7
20260506182403 13 8 4.8 11.3 0.00 0.18 0.18 82 1014.4
20260506182306 13 10 4.8 11.3 0.00 0.18 0.18 82 1014.5
20260506182203 13 10 4.8 11.3 0.00 0.18 0.18 82 1014.6
20260506182103 13 8 4.8 12.9 0.00 0.18 0.18 83 1014.6
20260506182004 13 8 4.8 12.9 0.00 0.18 0.18 83 1014.6
20260506181903 13 9 4.8 12.9 0.00 0.18 0.18 82 1014.5
20260506181803 13 9 4.8 12.9 0.00 0.18 0.18 82 1014.4
20260506181703 13 8 6.4 12.9 0.00 0.18 0.18 82 1014.4
20260506181604 13 8 6.4 12.9 0.00 0.18 0.18 82 1014.6
20260506181503 13 9 6.4 12.9 0.00 0.18 0.18 82 1014.6
20260506181403 13 14 4.8 12.9 0.00 0.18 0.18 82 1014.6
20260506181303 13 13 4.8 12.9 0.00 0.18 0.18 82 1014.6
20260506181224 13 13 4.8 12.9 0.00 0.18 0.18 82 1014.6
20260506181124 13 15 4.8 12.9 0.00 0.18 0.18 82 1014.5
20260506181024 14 19 4.8 11.3 0.00 0.18 0.18 82 1014.6
20260506180903 14 20 3.2 11.3 0.00 0.18 0.18 82 1014.5
20260506180803 14 21 3.2 9.7 0.00 0.18 0.18 82 1014.5
20260506180724 14 18 4.8 9.7 0.00 0.18 0.18 82 1014.7
20260506180603 14 17 4.8 9.7 0.00 0.18 0.18 81 1014.6
20260506180503 14 19 4.8 9.7 0.00 0.18 0.18 81 1014.5
20260506180403 14 23 4.8 9.7 0.00 0.18 0.18 81 1014.7
20260506180303 15 21 4.8 9.7 0.00 0.18 0.18 81 1014.5
20260506180203 15 22 4.8 12.9 0.00 0.18 0.18 81 1014.5
20260506180124 15 23 4.8 12.9 0.00 0.18 0.18 81 1014.5
20260506180004 15 17 4.8 12.9 0.00 0.18 0.18 80 1014.5
20260506175903 15 17 6.4 12.9 0.00 0.18 0.18 80 1014.5
20260506175803 15 16 6.4 12.9 0.00 0.18 0.18 79 1014.5
20260506175703 15 18 6.4 12.9 0.00 0.18 0.18 80 1014.5
20260506175603 15 20 6.4 12.9 0.00 0.18 0.18 80 1014.6
20260506175503 15 20 6.4 12.9 0.00 0.18 0.18 80 1014.6
20260506175403 15 12 6.4 16.1 0.00 0.18 0.18 80 1014.7
20260506175306 15 8 6.4 16.1 0.00 0.18 0.18 80 1014.6
20260506175203 15 7 6.4 16.1 0.00 0.18 0.18 81 1014.6
20260506175103 15 3 6.4 16.1 0.00 0.18 0.18 81 1014.8
20260506175003 15 360 6.4 16.1 0.00 0.18 0.18 81 1014.6
20260506174903 15 360 6.4 16.1 0.00 0.18 0.18 81 1014.6
20260506174803 15 356 6.4 16.1 0.00 0.18 0.18 81 1014.7
20260506174724 15 357 6.4 16.1 0.00 0.18 0.18 81 1014.6
20260506174603 15 355 6.4 16.1 0.00 0.18 0.18 80 1014.6
20260506174503 15 355 6.4 16.1 0.00 0.18 0.18 79 1014.7
20260506174403 15 357 4.8 11.3 0.00 0.18 0.18 80 1014.7
20260506174303 15 358 6.4 12.9 0.00 0.18 0.18 80 1014.6
20260506174203 15 356 6.4 12.9 0.00 0.18 0.18 80 1014.7
20260506174103 15 359 8.0 12.9 0.00 0.18 0.18 79 1014.6
20260506174003 15 355 8.0 12.9 0.00 0.18 0.18 78 1014.7
20260506173903 15 356 8.0 12.9 0.00 0.18 0.18 78 1014.7
20260506173803 15 357 8.0 12.9 0.00 0.18 0.18 78 1014.6
20260506173703 15 353 8.0 12.9 0.00 0.18 0.18 79 1014.6
20260506173603 15 355 8.0 12.9 0.00 0.18 0.18 78 1014.6
20260506173503 15 355 8.0 12.9 0.00 0.18 0.18 78 1014.6
20260506173403 15 354 8.0 12.9 0.00 0.18 0.18 78 1014.8
20260506173303 15 355 6.4 12.9 0.00 0.18 0.18 77 1014.6
20260506173203 15 356 6.4 12.9 0.00 0.18 0.18 76 1014.8
20260506173103 15 357 6.4 12.9 0.00 0.18 0.18 76 1014.8
20260506173003 16 355 4.8 12.9 0.00 0.18 0.18 76 1014.8
20260506172903 16 356 4.8 12.9 0.00 0.18 0.18 75 1014.9
20260506172803 16 356 4.8 12.9 0.00 0.18 0.18 74 1014.8
20260506172703 16 359 4.8 9.7 0.00 0.18 0.18 75 1014.9
20260506172603 16 3 3.2 9.7 0.00 0.18 0.18 75 1014.9
20260506172503 16 2 3.2 9.7 0.00 0.18 0.18 76 1014.8
20260506172403 16 3 4.8 9.7 0.00 0.18 0.18 75 1014.9
20260506172306 16 3 4.8 9.7 0.00 0.18 0.18 75 1014.8
20260506172203 16 5 4.8 9.7 0.00 0.18 0.18 75 1014.9
20260506172124 16 5 4.8 9.7 0.00 0.18 0.18 75 1014.9
20260506172003 16 8 4.8 9.7 0.00 0.18 0.18 75 1014.8
20260506171903 16 13 4.8 9.7 0.00 0.18 0.18 76 1015.0
20260506171803 16 12 4.8 11.3 0.00 0.18 0.18 75 1014.9
20260506171703 16 12 4.8 11.3 0.00 0.18 0.18 75 1014.8
20260506171603 16 12 4.8 11.3 0.00 0.18 0.18 75 1014.8
20260506171503 16 13 4.8 11.3 0.00 0.18 0.18 75 1015.0
20260506171403 16 13 4.8 11.3 0.00 0.18 0.18 75 1014.8
20260506171324 16 10 4.8 11.3 0.00 0.18 0.18 75 1014.9
20260506171224 16 6 4.8 11.3 0.00 0.18 0.18 75 1014.8
20260506171124 16 359 4.8 11.3 0.00 0.18 0.18 75 1014.8
20260506171003 16 356 4.8 11.3 0.00 0.18 0.18 74 1014.9
20260506170903 16 352 4.8 11.3 0.00 0.18 0.18 73 1014.9
20260506170803 16 350 4.8 11.3 0.00 0.18 0.18 72 1015.0
20260506170725 16 347 4.8 11.3 0.00 0.18 0.18 72 1014.9
20260506170603 16 346 4.8 11.3 0.00 0.18 0.18 72 1014.7
20260506170503 16 347 4.8 11.3 0.00 0.18 0.18 72 1015.0
20260506170403 16 341 4.8 11.3 0.00 0.18 0.18 73 1014.7
20260506170303 16 344 4.8 11.3 0.00 0.18 0.18 71 1015.0
20260506170203 16 346 3.2 11.3 0.00 0.18 0.18 72 1014.8
20260506170124 16 346 3.2 11.3 0.00 0.18 0.18 72 1014.8
20260506170004 16 356 3.2 6.4 0.00 0.18 0.18 71 1014.9
20260506165903 16 356 3.2 6.4 0.00 0.18 0.18 71 1014.9
20260506165824 16 360 3.2 4.8 0.00 0.18 0.18 71 1014.7
20260506165703 16 355 3.2 6.4 0.00 0.18 0.18 70 1014.8
20260506165603 16 351 3.2 9.7 0.00 0.18 0.18 73 1014.9
20260506165503 16 355 3.2 11.3 0.00 0.18 0.18 73 1014.9
20260506165403 16 352 3.2 11.3 0.00 0.18 0.18 74 1015.0
20260506165324 16 356 4.8 11.3 0.00 0.18 0.18 73 1015.2
20260506165203 15 354 4.8 11.3 0.00 0.18 0.18 74 1014.8
20260506165103 15 352 6.4 11.3 0.00 0.18 0.18 74 1015.1
20260506165003 15 353 6.4 11.3 0.00 0.18 0.18 74 1015.1
20260506164903 15 353 6.4 11.3 0.00 0.18 0.18 74 1014.9
20260506164804 15 350 6.4 14.5 0.00 0.18 0.18 73 1015.0
20260506164724 15 350 6.4 14.5 0.00 0.18 0.18 73 1015.0
20260506164603 15 354 6.4 14.5 0.00 0.18 0.18 72 1014.9
20260506164503 15 351 6.4 14.5 0.00 0.18 0.18 73 1015.0
20260506164403 15 351 6.4 14.5 0.00 0.18 0.18 73 1015.0
20260506164303 15 352 8.0 14.5 0.00 0.18 0.18 72 1015.1
20260506164203 15 349 8.0 14.5 0.00 0.18 0.18 73 1015.0
20260506164103 15 353 8.0 14.5 0.00 0.18 0.18 74 1014.8
20260506164003 15 351 8.0 14.5 0.00 0.18 0.18 74 1015.2
20260506163903 15 352 8.0 14.5 0.00 0.18 0.18 74 1015.2
20260506163803 15 355 8.0 14.5 0.00 0.18 0.18 75 1015.0
20260506163703 15 358 8.0 14.5 0.00 0.18 0.18 76 1015.0
20260506163603 15 359 8.0 14.5 0.00 0.18 0.18 77 1014.9
20260506163503 15 356 8.0 14.5 0.00 0.18 0.18 77 1014.8
20260506163403 15 355 8.0 14.5 0.00 0.18 0.18 78 1014.9
20260506163303 15 356 8.0 14.5 0.00 0.18 0.18 78 1015.0
20260506163203 15 360 6.4 14.5 0.00 0.18 0.18 78 1015.0
20260506163103 15 359 6.4 14.5 0.00 0.18 0.18 79 1015.0
20260506163003 15 2 6.4 14.5 0.00 0.18 0.18 77 1015.0
20260506162903 15 357 6.4 14.5 0.00 0.18 0.18 76 1015.1
20260506162803 15 357 6.4 14.5 0.00 0.18 0.18 76 1015.1
20260506162703 15 353 6.4 14.5 0.00 0.18 0.18 77 1014.9
20260506162603 15 354 6.4 14.5 0.00 0.18 0.18 77 1015.0
20260506162503 15 348 6.4 14.5 0.00 0.18 0.18 76 1015.0
20260506162403 15 349 6.4 14.5 0.00 0.18 0.18 77 1014.9
20260506162306 15 353 4.8 12.9 0.00 0.18 0.18 78 1015.0
20260506162203 15 351 4.8 12.9 0.00 0.18 0.18 79 1015.0
20260506162103 15 352 4.8 12.9 0.00 0.18 0.18 78 1014.8
20260506162024 15 351 4.8 12.9 0.00 0.18 0.18 78 1015.0
20260506161903 15 348 6.4 14.5 0.00 0.18 0.18 77 1015.1
20260506161803 16 354 6.4 14.5 0.00 0.18 0.18 76 1015.0
20260506161703 16 348 6.4 14.5 0.00 0.18 0.18 76 1015.0
20260506161603 16 346 4.8 14.5 0.00 0.18 0.18 76 1015.0
20260506161503 16 352 4.8 14.5 0.00 0.18 0.18 77 1015.0
20260506161403 15 355 4.8 14.5 0.00 0.18 0.18 76 1014.8
20260506161303 15 355 4.8 14.5 0.00 0.18 0.18 76 1014.9
20260506161203 15 355 4.8 14.5 0.00 0.18 0.18 76 1014.9
20260506161103 15 353 4.8 14.5 0.00 0.18 0.18 77 1015.0
20260506161003 15 353 4.8 14.5 0.00 0.18 0.18 76 1015.0
20260506160903 15 354 4.8 14.5 0.00 0.18 0.18 76 1015.0
20260506160803 16 360 4.8 12.9 0.00 0.18 0.18 76 1015.1
20260506160703 16 357 4.8 12.9 0.00 0.18 0.18 76 1015.1
20260506160603 16 4 4.8 12.9 0.00 0.18 0.18 77 1015.1
20260506160503 16 3 4.8 12.9 0.00 0.18 0.18 78 1015.0
20260506160403 15 359 6.4 12.9 0.00 0.18 0.18 78 1015.0
20260506160303 15 359 6.4 12.9 0.00 0.18 0.18 78 1015.2
20260506160203 15 356 6.4 12.9 0.00 0.18 0.18 78 1015.2
20260506160124 15 359 6.4 12.9 0.00 0.18 0.18 79 1015.1
20260506160003 15 356 6.4 12.9 0.00 0.18 0.18 79 1015.2
20260506155903 15 357 8.0 16.1 0.00 0.18 0.18 79 1015.1
20260506155803 15 356 8.0 16.1 0.00 0.18 0.18 80 1015.1
20260506155703 15 353 8.0 16.1 0.00 0.18 0.18 80 1015.2
20260506155603 15 354 8.0 16.1 0.00 0.18 0.18 80 1015.2
20260506155524 15 354 8.0 16.1 0.00 0.18 0.18 80 1015.2
20260506155403 15 355 8.0 16.1 0.00 0.18 0.18 81 1015.1
20260506155305 14 356 8.0 16.1 0.00 0.18 0.18 81 1015.2
20260506155203 14 356 8.0 16.1 0.00 0.18 0.18 81 1015.1
20260506155103 14 358 8.0 16.1 0.00 0.18 0.18 81 1015.2
20260506155003 14 356 8.0 16.1 0.00 0.18 0.18 81 1015.2
20260506154903 14 359 6.4 16.1 0.00 0.18 0.18 81 1015.2
20260506154824 14 356 6.4 14.5 0.00 0.18 0.18 81 1015.2
20260506154724 14 357 6.4 14.5 0.00 0.18 0.18 80 1015.2
20260506154603 15 356 4.8 14.5 0.00 0.18 0.18 81 1015.2
20260506154503 15 348 4.8 11.3 0.00 0.18 0.18 80 1015.1
20260506154424 15 348 4.8 11.3 0.00 0.18 0.18 80 1015.1
20260506154303 15 327 3.2 9.7 0.00 0.18 0.18 82 1015.1
20260506154224 15 327 3.2 9.7 0.00 0.18 0.18 82 1015.1
20260506154103 15 326 4.8 9.7 0.00 0.18 0.18 81 1015.2
20260506154003 15 326 4.8 9.7 0.00 0.18 0.18 81 1015.2
20260506153903 15 329 4.8 9.7 0.00 0.18 0.18 81 1015.1
20260506153803 15 331 4.8 9.7 0.00 0.18 0.18 80 1015.3
20260506153703 15 331 4.8 9.7 0.00 0.18 0.18 80 1015.3
20260506153603 15 336 4.8 16.1 0.00 0.18 0.18 80 1015.2
20260506153524 15 342 4.8 16.1 0.00 0.18 0.18 80 1015.3
20260506153403 15 350 6.4 16.1 0.00 0.18 0.18 80 1015.3
20260506153303 15 355 6.4 16.1 0.00 0.18 0.18 79 1015.2
20260506153203 15 357 6.4 16.1 0.00 0.18 0.18 78 1015.2
20260506153124 15 358 6.4 16.1 0.00 0.18 0.18 79 1015.3
20260506153004 15 358 4.8 16.1 0.00 0.18 0.18 79 1015.1
20260506152903 15 356 4.8 16.1 0.00 0.18 0.18 78 1015.3
20260506152824 15 356 4.8 16.1 0.00 0.18 0.18 77 1015.2
20260506152703 15 352 4.8 16.1 0.00 0.18 0.18 76 1015.1
20260506152603 15 350 4.8 9.7 0.00 0.18 0.18 77 1015.3
20260506152503 15 349 4.8 9.7 0.00 0.18 0.18 75 1015.1
20260506152424 15 349 4.8 9.7 0.00 0.18 0.18 75 1015.1
20260506152305 16 349 4.8 9.7 0.00 0.18 0.18 77 1015.3
20260506152203 15 357 4.8 9.7 0.00 0.18 0.18 76 1015.2
20260506152103 15 358 4.8 9.7 0.00 0.18 0.18 76 1015.2
20260506152004 15 358 4.8 9.7 0.00 0.18 0.18 76 1015.2
20260506151903 15 357 4.8 9.7 0.00 0.18 0.18 75 1015.3
20260506151824 15 356 4.8 9.7 0.00 0.18 0.18 74 1015.3
20260506151703 15 356 4.8 9.7 0.00 0.18 0.18 73 1015.2
20260506151603 15 360 3.2 9.7 0.00 0.18 0.18 73 1015.2
20260506151524 15 1 3.2 9.7 0.00 0.18 0.18 74 1015.2
20260506151424 15 2 3.2 9.7 0.00 0.18 0.18 74 1015.3
20260506151303 15 2 3.2 9.7 0.00 0.18 0.18 74 1015.2
20260506151203 15 2 4.8 9.7 0.00 0.18 0.18 74 1015.4
20260506151124 15 1 3.2 9.7 0.00 0.18 0.18 74 1015.4
20260506151003 15 347 3.2 9.7 0.00 0.18 0.18 75 1015.2
20260506150903 15 337 4.8 9.7 0.00 0.18 0.18 75 1015.3
20260506150803 15 343 4.8 9.7 0.00 0.18 0.18 75 1015.4
20260506150703 15 345 4.8 14.5 0.00 0.18 0.18 75 1015.4
20260506150604 15 345 4.8 14.5 0.00 0.18 0.18 75 1015.4
20260506150503 15 344 4.8 14.5 0.00 0.18 0.18 74 1015.4
20260506150403 15 344 4.8 14.5 0.00 0.18 0.18 74 1015.4
20260506150324 15 344 4.8 14.5 0.00 0.18 0.18 74 1015.4
20260506150203 15 342 4.8 14.5 0.00 0.18 0.18 74 1015.6
20260506150003 15 337 4.8 14.5 0.00 0.18 0.18 74 1015.4
20260506145903 15 336 4.8 14.5 0.00 0.18 0.18 74 1015.5
20260506145824 15 339 4.8 14.5 0.00 0.18 0.18 74 1015.4
20260506145703 15 333 4.8 14.5 0.00 0.18 0.18 74 1015.6
20260506145603 15 319 3.2 9.7 0.00 0.18 0.18 74 1015.6
20260506145503 15 306 3.2 9.7 0.00 0.18 0.18 75 1015.4
20260506145424 15 302 4.8 9.7 0.00 0.18 0.18 74 1015.4
20260506145305 15 299 3.2 9.7 0.00 0.18 0.18 76 1015.5
20260506145224 15 294 4.8 9.7 0.00 0.18 0.18 76 1015.6
20260506145124 15 294 4.8 9.7 0.00 0.18 0.18 76 1015.6
20260506145003 16 293 3.2 9.7 0.00 0.18 0.18 76 1015.6
20260506144903 15 310 3.2 6.4 0.00 0.18 0.18 77 1015.6
20260506144803 15 310 3.2 6.4 0.00 0.18 0.18 77 1015.6
20260506144703 15 325 4.8 9.7 0.00 0.18 0.18 76 1015.7
20260506144624 15 333 4.8 9.7 0.00 0.18 0.18 76 1015.6
20260506144524 15 343 4.8 9.7 0.00 0.18 0.18 76 1015.6
20260506144403 15 355 4.8 9.7 0.00 0.18 0.18 76 1015.6
20260506144303 15 3 4.8 9.7 0.00 0.18 0.18 76 1015.5
20260506144203 15 5 4.8 9.7 0.00 0.18 0.18 77 1015.5
20260506144103 15 9 4.8 9.7 0.00 0.18 0.18 77 1015.7
20260506144003 15 9 4.8 9.7 0.00 0.18 0.18 78 1015.5
20260506143924 15 9 4.8 9.7 0.00 0.18 0.18 77 1015.6
20260506143803 15 10 4.8 9.7 0.00 0.18 0.18 77 1015.5
20260506143703 15 8 4.8 9.7 0.00 0.18 0.18 77 1015.6
20260506143603 15 7 4.8 9.7 0.00 0.18 0.18 78 1015.6
20260506143503 15 6 4.8 9.7 0.00 0.18 0.18 78 1015.5
20260506143403 15 4 4.8 9.7 0.00 0.18 0.18 78 1015.6
20260506143303 15 3 4.8 6.4 0.00 0.18 0.18 79 1015.7
20260506143224 15 3 4.8 6.4 0.00 0.18 0.18 79 1015.7
20260506143124 15 359 4.8 11.3 0.00 0.18 0.18 77 1015.8
20260506143003 16 359 4.8 11.3 0.00 0.18 0.18 78 1015.6
20260506142903 16 357 4.8 11.3 0.00 0.18 0.18 77 1015.7
20260506142803 16 356 6.4 11.3 0.00 0.18 0.18 78 1015.7
20260506142703 16 356 6.4 11.3 0.00 0.18 0.18 78 1015.7
20260506142603 15 359 6.4 11.3 0.00 0.18 0.18 78 1015.4
20260506142503 15 360 6.4 11.3 0.00 0.18 0.18 77 1015.5
20260506142403 15 360 6.4 11.3 0.00 0.18 0.18 77 1015.5
20260506142305 15 359 6.4 11.3 0.00 0.18 0.18 78 1015.7
20260506142204 15 359 6.4 11.3 0.00 0.18 0.18 77 1015.6
20260506142103 15 1 6.4 11.3 0.00 0.18 0.18 78 1015.7
20260506142024 15 1 6.4 11.3 0.00 0.18 0.18 78 1015.6
20260506141903 15 360 6.4 11.3 0.00 0.18 0.18 78 1015.6
20260506141803 15 1 6.4 11.3 0.00 0.18 0.18 78 1015.5
20260506141724 15 2 6.4 11.3 0.00 0.18 0.18 78 1015.5
20260506141603 15 360 6.4 11.3 0.00 0.18 0.18 77 1015.8
20260506141503 15 359 4.8 11.3 0.00 0.18 0.18 77 1015.6
20260506141403 15 2 6.4 14.5 0.00 0.18 0.18 77 1015.7
20260506141303 15 2 6.4 14.5 0.00 0.18 0.18 77 1015.7
20260506141203 15 2 6.4 14.5 0.00 0.18 0.18 77 1015.7
20260506141103 15 2 6.4 14.5 0.00 0.18 0.18 77 1015.7
20260506141024 15 357 6.4 17.7 0.00 0.18 0.18 77 1015.6
20260506140903 15 353 6.4 17.7 0.00 0.18 0.18 77 1015.6
20260506140803 15 353 6.4 17.7 0.00 0.18 0.18 76 1015.9
20260506140703 15 350 6.4 17.7 0.00 0.18 0.18 77 1015.7
20260506140603 15 350 6.4 17.7 0.00 0.18 0.18 77 1015.7
20260506140503 15 345 6.4 17.7 0.00 0.18 0.18 77 1015.8
20260506140403 15 338 6.4 17.7 0.00 0.18 0.18 77 1015.7
20260506140303 15 328 4.8 17.7 0.00 0.18 0.18 77 1015.6
20260506140203 15 330 6.4 17.7 0.00 0.18 0.18 77 1015.7
20260506140024 15 330 6.4 17.7 0.00 0.18 0.18 76 1015.7
20260506135903 16 332 4.8 9.7 0.00 0.18 0.18 76 1015.8
20260506135803 16 332 4.8 9.7 0.00 0.18 0.18 77 1015.8
20260506135703 16 331 4.8 9.7 0.00 0.18 0.18 76 1015.7
20260506135603 16 328 4.8 9.7 0.00 0.18 0.18 76 1015.6
20260506135503 16 328 4.8 9.7 0.00 0.18 0.18 76 1015.6
20260506135403 16 339 4.8 9.7 0.00 0.18 0.18 75 1015.8
20260506135306 16 350 4.8 9.7 0.00 0.18 0.18 77 1015.9
20260506135203 16 349 4.8 11.3 0.00 0.18 0.18 77 1015.8
20260506135103 16 348 4.8 11.3 0.00 0.18 0.18 78 1015.9
20260506135003 15 347 4.8 11.3 0.00 0.18 0.18 79 1015.9
20260506134903 15 348 4.8 11.3 0.00 0.18 0.18 79 1015.8
20260506134803 15 343 4.8 11.3 0.00 0.18 0.18 79 1016.0
20260506134703 15 337 4.8 11.3 0.00 0.18 0.18 79 1015.8
20260506134624 15 336 4.8 11.3 0.00 0.18 0.18 78 1015.8
20260506134503 15 336 3.2 11.3 0.00 0.18 0.18 78 1015.9
20260506134403 15 333 3.2 11.3 0.00 0.18 0.18 78 1015.8
20260506134303 15 334 3.2 11.3 0.00 0.18 0.18 78 1015.8
20260506134204 15 339 3.2 6.4 0.00 0.18 0.18 78 1015.8
20260506134103 15 341 3.2 6.4 0.00 0.18 0.18 78 1015.8
20260506134025 15 341 3.2 6.4 0.00 0.18 0.18 78 1015.8
20260506133903 15 347 3.2 6.4 0.00 0.18 0.18 78 1015.8
20260506133803 15 351 3.2 6.4 0.00 0.18 0.18 78 1016.0
20260506133724 15 351 3.2 6.4 0.00 0.18 0.18 78 1016.0
20260506133603 15 355 3.2 6.4 0.00 0.18 0.18 78 1016.0
20260506133503 15 359 3.2 6.4 0.00 0.18 0.18 78 1015.9
20260506133403 15 1 3.2 6.4 0.00 0.18 0.18 77 1015.8
20260506133303 15 1 3.2 6.4 0.00 0.18 0.18 77 1015.9
20260506133203 15 360 3.2 6.4 0.00 0.18 0.18 77 1015.8
20260506133103 15 1 3.2 9.7 0.00 0.18 0.18 77 1015.8
20260506133003 15 360 3.2 9.7 0.00 0.18 0.18 77 1015.8
20260506132903 15 2 3.2 9.7 0.00 0.18 0.18 76 1015.9
20260506132803 15 2 3.2 9.7 0.00 0.18 0.18 76 1015.9
20260506132703 15 5 3.2 9.7 0.00 0.18 0.18 76 1015.8
20260506132624 15 5 3.2 9.7 0.00 0.18 0.18 76 1015.9
20260506132503 15 6 3.2 9.7 0.00 0.18 0.18 76 1015.9
20260506132403 15 359 3.2 9.7 0.00 0.18 0.18 76 1015.9
20260506132306 15 347 3.2 9.7 0.00 0.18 0.18 76 1015.8
20260506132203 15 348 3.2 9.7 0.00 0.18 0.18 76 1016.0
20260506132103 15 345 3.2 9.7 0.00 0.18 0.18 78 1015.9
20260506132003 15 345 3.2 9.7 0.00 0.18 0.18 79 1015.9
20260506131903 15 343 3.2 9.7 0.00 0.18 0.18 79 1015.9
20260506131803 15 345 4.8 9.7 0.00 0.18 0.18 78 1015.8
20260506131724 15 345 4.8 9.7 0.00 0.18 0.18 78 1015.8
20260506131603 15 343 4.8 11.3 0.00 0.18 0.18 79 1015.8
20260506131503 15 343 4.8 11.3 0.00 0.18 0.18 79 1015.8
20260506131403 15 342 4.8 11.3 0.00 0.18 0.18 79 1015.9
20260506131303 15 349 4.8 11.3 0.00 0.18 0.18 79 1016.0
20260506131203 15 354 4.8 11.3 0.00 0.18 0.18 79 1015.8
20260506131103 15 355 4.8 11.3 0.00 0.18 0.18 79 1015.9
20260506131003 15 358 6.4 11.3 0.00 0.18 0.18 78 1016.0
20260506130903 15 358 6.4 11.3 0.00 0.18 0.18 78 1015.9
20260506130824 15 360 6.4 11.3 0.00 0.18 0.18 78 1015.9
20260506130703 15 359 4.8 11.3 0.00 0.18 0.18 79 1015.9
20260506130603 15 360 4.8 11.3 0.00 0.18 0.18 78 1015.9
20260506130503 15 3 4.8 11.3 0.00 0.18 0.18 78 1016.0
20260506130403 15 3 4.8 11.3 0.00 0.18 0.18 78 1015.8
20260506130303 15 360 4.8 11.3 0.00 0.18 0.18 78 1015.9
20260506130204 15 5 4.8 11.3 0.00 0.18 0.18 78 1015.9
20260506130103 15 3 3.2 11.3 0.00 0.18 0.18 77 1015.9
20260506130003 15 2 3.2 6.4 0.00 0.18 0.18 77 1015.9
20260506125903 15 2 3.2 6.4 0.00 0.18 0.18 77 1015.9
20260506125824 15 2 3.2 6.4 0.00 0.18 0.18 77 1015.9
20260506125703 15 3 3.2 6.4 0.00 0.18 0.18 77 1016.0
20260506125603 15 2 3.2 6.4 0.00 0.18 0.18 76 1015.8
20260506125524 15 2 3.2 6.4 0.00 0.18 0.18 76 1015.8
20260506125403 15 3 3.2 6.4 0.00 0.18 0.18 76 1016.0
20260506125305 15 2 3.2 6.4 0.00 0.18 0.18 76 1016.1
20260506125203 15 6 3.2 11.3 0.00 0.18 0.18 76 1016.0
20260506125103 15 4 3.2 11.3 0.00 0.18 0.18 75 1016.0
20260506125003 15 4 3.2 11.3 0.00 0.18 0.18 75 1016.0
20260506124903 15 5 4.8 11.3 0.00 0.18 0.18 76 1015.9
20260506124803 15 3 4.8 11.3 0.00 0.18 0.18 76 1016.1
20260506124703 15 358 3.2 11.3 0.00 0.18 0.18 78 1016.0
20260506124603 15 358 4.8 11.3 0.00 0.18 0.18 77 1016.1
20260506124503 15 358 4.8 11.3 0.00 0.18 0.18 76 1016.1
20260506124403 15 357 3.2 11.3 0.00 0.18 0.18 77 1015.9
20260506124303 15 357 3.2 11.3 0.00 0.18 0.18 77 1015.9
20260506124203 15 353 3.2 11.3 0.00 0.18 0.18 75 1016.1
20260506124103 15 348 3.2 11.3 0.00 0.18 0.18 75 1016.0
20260506124002 15 348 3.2 9.7 0.00 0.18 0.18 75 1016.1
20260506123902 15 347 3.2 9.7 0.00 0.18 0.18 75 1016.1
20260506123802 16 338 3.2 4.8 0.00 0.18 0.18 75 1015.9
20260506123702 16 344 3.2 6.4 0.00 0.18 0.18 75 1016.2
20260506123603 16 354 3.2 11.3 0.00 0.18 0.18 75 1016.1
20260506123502 16 355 3.2 11.3 0.00 0.18 0.18 75 1016.0
20260506123424 15 355 3.2 11.3 0.00 0.18 0.18 74 1016.2
20260506123302 16 355 4.8 11.3 0.00 0.18 0.18 74 1016.2
20260506123224 16 355 4.8 11.3 0.00 0.18 0.18 74 1016.2
20260506123102 16 5 4.8 11.3 0.00 0.18 0.18 73 1016.2
20260506123002 16 2 4.8 11.3 0.00 0.18 0.18 74 1016.0
20260506122902 16 2 4.8 11.3 0.00 0.18 0.18 73 1016.1
20260506122823 16 2 4.8 11.3 0.00 0.18 0.18 73 1016.1
20260506122702 16 5 4.8 11.3 0.00 0.18 0.18 74 1016.0
20260506122602 16 5 4.8 11.3 0.00 0.18 0.18 72 1016.1
20260506122502 15 4 4.8 9.7 0.00 0.18 0.18 72 1016.2
20260506122402 15 4 4.8 9.7 0.00 0.18 0.18 72 1016.1
20260506122305 15 4 4.8 9.7 0.00 0.18 0.18 72 1016.3
20260506122203 15 2 4.8 9.7 0.00 0.18 0.18 73 1016.2
20260506122103 16 360 4.8 9.7 0.00 0.18 0.18 73 1016.2
20260506122002 16 359 3.2 9.7 0.00 0.18 0.18 73 1016.0
20260506121903 16 5 3.2 9.7 0.00 0.18 0.18 73 1016.1
20260506121802 16 5 3.2 9.7 0.00 0.18 0.18 75 1016.2
20260506121702 16 5 3.2 9.7 0.00 0.18 0.18 76 1016.1
20260506121603 16 6 3.2 6.4 0.00 0.18 0.18 75 1016.3
20260506121503 16 1 3.2 6.4 0.00 0.18 0.18 76 1016.2
20260506121403 16 359 3.2 6.4 0.00 0.18 0.18 75 1016.2
20260506121302 16 359 3.2 6.4 0.00 0.18 0.18 75 1016.3
20260506121203 16 358 3.2 9.7 0.00 0.18 0.18 74 1016.3
20260506121103 16 359 3.2 9.7 0.00 0.18 0.18 76 1016.1
20260506121002 16 358 3.2 9.7 0.00 0.18 0.18 76 1016.3
20260506120902 16 356 3.2 9.7 0.00 0.18 0.18 76 1016.3
20260506120802 16 354 4.8 9.7 0.00 0.18 0.18 75 1016.3
20260506120703 16 354 4.8 9.7 0.00 0.18 0.18 75 1016.3
20260506120602 16 355 4.8 9.7 0.00 0.18 0.18 75 1016.3
20260506120502 16 350 4.8 9.7 0.00 0.18 0.18 76 1016.2
20260506120424 16 352 4.8 9.7 0.00 0.18 0.18 75 1016.3
20260506120303 16 352 4.8 9.7 0.00 0.18 0.18 76 1016.4
20260506120202 16 348 4.8 9.7 0.00 0.18 0.18 74 1016.5
20260506120003 15 346 4.8 9.7 0.00 0.18 0.18 77 1016.4
20260506115903 15 347 4.8 12.9 0.00 0.18 0.18 75 1016.4
20260506115802 15 348 4.8 12.9 0.00 0.18 0.18 75 1016.3
20260506115703 15 350 4.8 12.9 0.00 0.18 0.18 76 1016.4
20260506115623 15 350 4.8 12.9 0.00 0.18 0.18 75 1016.3
20260506115503 15 354 4.8 12.9 0.00 0.18 0.18 76 1016.4
20260506115403 15 353 4.8 12.9 0.00 0.18 0.18 78 1016.3
20260506115306 15 355 4.8 12.9 0.00 0.18 0.18 78 1016.4
20260506115224 15 355 4.8 12.9 0.00 0.18 0.18 78 1016.4
20260506115102 15 358 6.4 12.9 0.00 0.18 0.18 77 1016.2
20260506115003 15 360 6.4 12.9 0.00 0.18 0.18 77 1016.4
20260506114903 15 2 4.8 12.9 0.00 0.18 0.18 78 1016.3
20260506114802 15 4 4.8 6.4 0.00 0.18 0.18 79 1016.4
20260506114724 15 4 4.8 6.4 0.00 0.18 0.18 79 1016.4
20260506114623 15 3 4.8 6.4 0.00 0.18 0.18 79 1016.4
20260506114503 15 3 4.8 6.4 0.00 0.18 0.18 79 1016.3